Time,TemperatureF,DewpointF,PressureIn,WindDirection,WindDirectionDegrees,WindSpeedMPH,WindSpeedGustMPH,Humidity,HourlyPrecipIn,Conditions,Clouds,dailyrainin,SoftwareType,DateUTC
2013-01-31 00:00:00,53.0,50.5,29.29,East,88,7.0,10.0,91,0.07,,,0.33,VWS V14.01,2013-01-31 05:00:00,
2013-01-31 00:05:00,52.9,50.3,29.29,North,355,2.0,6.0,91,0.07,,,0.00,VWS V14.01,2013-01-31 05:05:00,
2013-01-31 00:06:00,52.9,50.3,29.29,North,355,0.0,6.0,91,0.07,,,0.00,VWS V14.01,2013-01-31 05:06:00,
2013-01-31 00:10:00,52.6,50.0,29.29,NE,36,1.0,10.0,91,0.08,,,0.01,VWS V14.01,2013-01-31 05:10:00,
2013-01-31 00:11:00,52.6,50.0,29.28,NE,38,4.0,6.0,91,0.08,,,0.01,VWS V14.01,2013-01-31 05:11:00,
2013-01-31 00:15:00,53.1,51.1,29.28,South,169,1.0,6.0,93,0.08,,,0.01,VWS V14.01,2013-01-31 05:15:00,
2013-01-31 00:16:00,53.1,50.8,29.28,South,169,0.0,2.0,92,0.08,,,0.01,VWS V14.01,2013-01-31 05:16:00,
2013-01-31 00:20:00,53.0,50.7,29.28,East,92,3.0,11.0,92,0.09,,,0.02,VWS V14.01,2013-01-31 05:20:00,
2013-01-31 00:21:00,53.0,50.7,29.28,ESE,104,5.0,5.0,92,0.08,,,0.03,VWS V14.01,2013-01-31 05:21:00,
2013-01-31 00:25:00,53.7,51.7,29.28,WSW,257,1.0,10.0,93,0.09,,,0.03,VWS V14.01,2013-01-31 05:25:00,
2013-01-31 00:26:00,53.7,51.7,29.27,East,81,3.0,3.0,93,0.08,,,0.03,VWS V14.01,2013-01-31 05:26:00,
2013-01-31 00:30:00,53.7,51.7,29.27,East,82,2.0,10.0,93,0.09,,,0.04,VWS V14.01,2013-01-31 05:30:00,
2013-01-31 00:31:00,53.7,51.7,29.27,East,82,0.0,1.0,93,0.09,,,0.04,VWS V14.01,2013-01-31 05:31:00,
2013-01-31 00:35:00,53.8,51.8,29.26,ENE,71,3.0,8.0,93,0.10,,,0.05,VWS V14.01,2013-01-31 05:35:00,
2013-01-31 00:36:00,53.8,51.8,29.26,ENE,72,3.0,3.0,93,0.09,,,0.05,VWS V14.01,2013-01-31 05:36:00,
2013-01-31 00:40:00,53.2,50.9,29.26,NE,50,4.0,12.0,92,0.09,,,0.05,VWS V14.01,2013-01-31 05:40:00,
2013-01-31 00:41:00,53.1,50.8,29.26,SE,126,5.0,7.0,92,0.08,,,0.05,VWS V14.01,2013-01-31 05:41:00,
2013-01-31 00:45:00,53.1,50.8,29.25,ESE,115,3.0,12.0,92,0.09,,,0.06,VWS V14.01,2013-01-31 05:45:00,
2013-01-31 00:46:00,53.1,50.8,29.25,ESE,109,2.0,3.0,92,0.09,,,0.06,VWS V14.01,2013-01-31 05:46:00,
2013-01-31 00:47:00,53.2,51.2,29.25,East,90,3.0,5.0,93,0.09,,,0.06,VWS V14.01,2013-01-31 05:47:00,
2013-01-31 00:50:00,53.3,51.3,29.24,ENE,61,3.0,10.0,93,0.10,,,0.07,VWS V14.01,2013-01-31 05:50:00,
2013-01-31 00:51:00,53.4,51.4,29.24,East,80,3.0,7.0,93,0.08,,,0.07,VWS V14.01,2013-01-31 05:51:00,
2013-01-31 00:52:00,53.5,51.5,29.24,East,92,6.0,7.0,93,0.08,,,0.07,VWS V14.01,2013-01-31 05:52:00,
2013-01-31 00:55:00,53.5,51.5,29.24,NE,55,0.0,12.0,93,0.09,,,0.08,VWS V14.01,2013-01-31 05:55:00,
2013-01-31 00:56:00,53.4,51.1,29.24,NE,55,1.0,1.0,92,0.09,,,0.08,VWS V14.01,2013-01-31 05:56:00,
2013-01-31 00:57:00,53.4,51.1,29.23,NE,55,1.0,2.0,92,0.09,,,0.08,VWS V14.01,2013-01-31 05:57:00,
2013-01-31 01:00:00,52.8,50.5,29.22,NE,53,2.0,5.0,92,0.09,,,0.08,VWS V14.01,2013-01-31 06:00:00,
2013-01-31 01:01:00,52.6,50.3,29.22,NE,53,1.0,3.0,92,0.08,,,0.08,VWS V14.01,2013-01-31 06:01:00,
2013-01-31 01:02:00,52.5,50.0,29.22,NE,53,0.0,3.0,91,0.08,,,0.08,VWS V14.01,2013-01-31 06:02:00,
2013-01-31 01:05:00,51.8,49.6,29.22,NE,53,0.0,3.0,92,0.09,,,0.09,VWS V14.01,2013-01-31 06:05:00,
2013-01-31 01:06:00,51.6,49.4,29.22,NE,53,0.0,0.0,92,0.09,,,0.09,VWS V14.01,2013-01-31 06:06:00,
2013-01-31 01:07:00,51.6,49.4,29.22,NE,53,0.0,0.0,92,0.09,,,0.09,VWS V14.01,2013-01-31 06:07:00,
2013-01-31 01:10:00,50.8,48.3,29.21,NE,53,0.0,1.0,91,0.09,,,0.09,VWS V14.01,2013-01-31 06:10:00,
2013-01-31 01:11:00,50.7,48.5,29.21,NE,53,0.0,0.0,92,0.08,,,0.09,VWS V14.01,2013-01-31 06:11:00,
2013-01-31 01:12:00,50.6,48.4,29.21,NE,53,0.0,0.0,92,0.08,,,0.09,VWS V14.01,2013-01-31 06:12:00,
2013-01-31 01:15:00,50.1,47.9,29.20,NE,53,0.0,2.0,92,0.09,,,0.10,VWS V14.01,2013-01-31 06:15:00,
2013-01-31 01:16:00,50.1,47.9,29.20,NE,53,0.0,1.0,92,0.09,,,0.10,VWS V14.01,2013-01-31 06:16:00,
2013-01-31 01:17:00,50.1,47.9,29.20,NE,53,0.0,1.0,92,0.09,,,0.10,VWS V14.01,2013-01-31 06:17:00,
2013-01-31 01:20:00,49.9,47.7,29.19,NE,51,1.0,2.0,92,0.09,,,0.10,VWS V14.01,2013-01-31 06:20:00,
2013-01-31 01:21:00,49.8,47.6,29.19,NE,51,0.0,1.0,92,0.08,,,0.10,VWS V14.01,2013-01-31 06:21:00,
2013-01-31 01:22:00,49.8,47.6,29.19,NE,51,0.0,1.0,92,0.08,,,0.10,VWS V14.01,2013-01-31 06:22:00,
2013-01-31 01:25:00,49.7,47.8,29.18,NE,51,0.0,2.0,93,0.08,,,0.10,VWS V14.01,2013-01-31 06:25:00,
2013-01-31 01:26:00,49.7,47.8,29.18,NE,51,0.0,0.0,93,0.07,,,0.10,VWS V14.01,2013-01-31 06:26:00,
2013-01-31 01:27:00,49.7,47.8,29.18,NE,51,0.0,0.0,93,0.08,,,0.11,VWS V14.01,2013-01-31 06:27:00,
2013-01-31 01:30:00,49.6,47.7,29.17,East,81,0.0,3.0,93,0.08,,,0.11,VWS V14.01,2013-01-31 06:30:00,
2013-01-31 01:31:00,49.6,47.7,29.17,East,80,1.0,1.0,93,0.07,,,0.11,VWS V14.01,2013-01-31 06:31:00,
2013-01-31 01:32:00,49.6,47.7,29.17,East,81,2.0,2.0,93,0.07,,,0.11,VWS V14.01,2013-01-31 06:32:00,
2013-01-31 01:35:00,49.7,47.8,29.16,East,86,0.0,3.0,93,0.07,,,0.11,VWS V14.01,2013-01-31 06:35:00,
2013-01-31 01:36:00,49.7,47.8,29.16,East,92,3.0,3.0,93,0.06,,,0.11,VWS V14.01,2013-01-31 06:36:00,
2013-01-31 01:37:00,49.7,47.8,29.16,East,91,0.0,3.0,93,0.06,,,0.11,VWS V14.01,2013-01-31 06:37:00,
2013-01-31 01:40:00,49.6,47.7,29.15,East,91,1.0,3.0,93,0.06,,,0.11,VWS V14.01,2013-01-31 06:40:00,
2013-01-31 01:41:00,49.5,47.6,29.15,East,91,0.0,1.0,93,0.06,,,0.11,VWS V14.01,2013-01-31 06:41:00,
2013-01-31 01:42:00,49.5,47.6,29.15,East,88,3.0,4.0,93,0.06,,,0.11,VWS V14.01,2013-01-31 06:42:00,
2013-01-31 01:45:00,49.2,47.3,29.15,East,87,0.0,4.0,93,0.06,,,0.11,VWS V14.01,2013-01-31 06:45:00,
2013-01-31 01:47:00,49.0,47.1,29.15,East,87,0.0,3.0,93,0.05,,,0.11,VWS V14.01,2013-01-31 06:47:00,
2013-01-31 01:48:00,49.0,47.1,29.15,East,88,0.0,3.0,93,0.05,,,0.11,VWS V14.01,2013-01-31 06:48:00,
2013-01-31 01:50:00,48.9,47.0,29.15,East,88,1.0,3.0,93,0.05,,,0.11,VWS V14.01,2013-01-31 06:50:00,
2013-01-31 01:52:00,48.9,47.0,29.15,East,88,0.0,1.0,93,0.04,,,0.11,VWS V14.01,2013-01-31 06:52:00,
2013-01-31 01:53:00,48.9,47.0,29.14,ESE,102,2.0,4.0,93,0.04,,,0.11,VWS V14.01,2013-01-31 06:53:00,
2013-01-31 01:55:00,49.2,47.5,29.14,WNW,303,0.0,4.0,94,0.05,,,0.12,VWS V14.01,2013-01-31 06:55:00,
2013-01-31 01:57:00,49.4,47.8,29.14,ENE,70,0.0,4.0,94,0.04,,,0.12,VWS V14.01,2013-01-31 06:57:00,
2013-01-31 01:58:00,49.6,48.0,29.14,East,82,3.0,4.0,94,0.04,,,0.12,VWS V14.01,2013-01-31 06:58:00,
2013-01-31 02:00:00,50.2,48.5,29.13,East,83,0.0,4.0,94,0.04,,,0.12,VWS V14.01,2013-01-31 07:00:00,
2013-01-31 02:02:00,50.1,48.4,29.13,East,83,0.0,3.0,94,0.04,,,0.12,VWS V14.01,2013-01-31 07:02:00,
2013-01-31 02:03:00,50.1,48.4,29.12,East,83,0.0,3.0,94,0.04,,,0.12,VWS V14.01,2013-01-31 07:03:00,
2013-01-31 02:05:00,50.3,48.6,29.12,East,84,4.0,6.0,94,0.04,,,0.12,VWS V14.01,2013-01-31 07:05:00,
2013-01-31 02:07:00,50.6,49.2,29.11,East,87,0.0,5.0,95,0.03,,,0.12,VWS V14.01,2013-01-31 07:07:00,
2013-01-31 02:08:00,50.7,49.3,29.11,ESE,107,3.0,5.0,95,0.04,,,0.13,VWS V14.01,2013-01-31 07:08:00,
2013-01-31 02:10:00,51.2,49.8,29.11,East,95,3.0,5.0,95,0.04,,,0.13,VWS V14.01,2013-01-31 07:10:00,
2013-01-31 02:12:00,51.2,49.8,29.11,East,91,1.0,3.0,95,0.04,,,0.13,VWS V14.01,2013-01-31 07:12:00,
2013-01-31 02:13:00,51.2,49.8,29.11,East,92,5.0,6.0,95,0.04,,,0.13,VWS V14.01,2013-01-31 07:13:00,
2013-01-31 02:15:00,51.2,49.5,29.11,ENE,75,1.0,6.0,94,0.04,,,0.13,VWS V14.01,2013-01-31 07:15:00,
2013-01-31 02:18:00,51.0,49.3,29.11,ENE,73,4.0,4.0,94,0.03,,,0.13,VWS V14.01,2013-01-31 07:18:00,
2013-01-31 02:20:00,51.1,49.4,29.10,East,96,4.0,8.0,94,0.03,,,0.13,VWS V14.01,2013-01-31 07:20:00,
2013-01-31 02:23:00,51.2,49.5,29.10,East,87,3.0,4.0,94,0.03,,,0.13,VWS V14.01,2013-01-31 07:23:00,
2013-01-31 02:25:00,51.0,49.3,29.10,North,5,0.0,4.0,94,0.03,,,0.13,VWS V14.01,2013-01-31 07:25:00,
2013-01-31 02:28:00,51.2,49.5,29.10,ESE,109,2.0,4.0,94,0.03,,,0.13,VWS V14.01,2013-01-31 07:28:00,
2013-01-31 02:30:00,51.4,49.7,29.09,ESE,112,0.0,4.0,94,0.03,,,0.13,VWS V14.01,2013-01-31 07:30:00,
2013-01-31 02:33:00,51.6,49.9,29.08,East,100,2.0,6.0,94,0.02,,,0.13,VWS V14.01,2013-01-31 07:33:00,
2013-01-31 02:34:00,51.8,50.1,29.08,East,98,0.0,6.0,94,0.02,,,0.13,VWS V14.01,2013-01-31 07:34:00,
2013-01-31 02:35:00,51.8,50.1,29.08,East,98,3.0,6.0,94,0.03,,,0.14,VWS V14.01,2013-01-31 07:35:00,
2013-01-31 02:38:00,51.7,50.0,29.08,East,98,0.0,3.0,94,0.03,,,0.14,VWS V14.01,2013-01-31 07:38:00,
2013-01-31 02:39:00,51.5,49.8,29.08,East,98,4.0,4.0,94,0.03,,,0.14,VWS V14.01,2013-01-31 07:39:00,
2013-01-31 02:40:00,51.2,49.2,29.08,East,83,3.0,4.0,93,0.03,,,0.14,VWS V14.01,2013-01-31 07:40:00,
2013-01-31 02:43:00,51.4,49.7,29.07,East,91,0.0,6.0,94,0.03,,,0.14,VWS V14.01,2013-01-31 07:43:00,
2013-01-31 02:44:00,51.4,49.7,29.07,East,91,0.0,6.0,94,0.03,,,0.14,VWS V14.01,2013-01-31 07:44:00,
2013-01-31 02:45:00,51.2,49.2,29.07,NE,40,3.0,6.0,93,0.03,,,0.14,VWS V14.01,2013-01-31 07:45:00,
2013-01-31 02:48:00,51.2,49.5,29.07,East,94,1.0,4.0,94,0.03,,,0.14,VWS V14.01,2013-01-31 07:48:00,
2013-01-31 02:49:00,51.1,49.4,29.06,East,95,0.0,4.0,94,0.03,,,0.14,VWS V14.01,2013-01-31 07:49:00,
2013-01-31 02:50:00,51.0,49.0,29.06,East,95,3.0,4.0,93,0.03,,,0.14,VWS V14.01,2013-01-31 07:50:00,
2013-01-31 02:53:00,50.6,48.7,29.06,NE,56,0.0,4.0,93,0.03,,,0.14,VWS V14.01,2013-01-31 07:53:00,
2013-01-31 02:54:00,50.6,48.7,29.06,ENE,57,2.0,4.0,93,0.03,,,0.14,VWS V14.01,2013-01-31 07:54:00,
2013-01-31 02:55:00,50.6,48.7,29.06,North,349,0.0,4.0,93,0.03,,,0.14,VWS V14.01,2013-01-31 07:55:00,
2013-01-31 02:58:00,50.5,48.6,29.06,East,87,0.0,6.0,93,0.02,,,0.14,VWS V14.01,2013-01-31 07:58:00,
2013-01-31 02:59:00,50.4,48.5,29.06,East,87,0.0,6.0,93,0.02,,,0.14,VWS V14.01,2013-01-31 07:59:00,
2013-01-31 03:00:00,50.4,48.5,29.06,East,90,3.0,6.0,93,0.02,,,0.14,VWS V14.01,2013-01-31 08:00:00,
2013-01-31 03:03:00,50.3,48.6,29.06,ESE,119,0.0,4.0,94,0.02,,,0.14,VWS V14.01,2013-01-31 08:03:00,
2013-01-31 03:04:00,50.3,48.6,29.06,ESE,120,0.0,4.0,94,0.03,,,0.15,VWS V14.01,2013-01-31 08:04:00,
2013-01-31 03:05:00,50.4,48.7,29.06,ESE,117,1.0,4.0,94,0.03,,,0.15,VWS V14.01,2013-01-31 08:05:00,
2013-01-31 03:08:00,50.8,49.1,29.06,East,98,0.0,5.0,94,0.03,,,0.15,VWS V14.01,2013-01-31 08:08:00,
2013-01-31 03:09:00,50.8,49.1,29.05,East,98,0.0,5.0,94,0.03,,,0.15,VWS V14.01,2013-01-31 08:09:00,
2013-01-31 03:10:00,50.9,49.2,29.05,East,86,0.0,5.0,94,0.03,,,0.15,VWS V14.01,2013-01-31 08:10:00,
2013-01-31 03:13:00,51.1,49.4,29.04,East,86,0.0,0.0,94,0.02,,,0.15,VWS V14.01,2013-01-31 08:13:00,
2013-01-31 03:14:00,51.1,49.4,29.04,East,86,0.0,0.0,94,0.02,,,0.15,VWS V14.01,2013-01-31 08:14:00,
2013-01-31 03:15:00,51.0,49.3,29.04,ENE,77,2.0,3.0,94,0.02,,,0.15,VWS V14.01,2013-01-31 08:15:00,
2013-01-31 03:18:00,50.8,49.1,29.04,ENE,78,0.0,3.0,94,0.03,,,0.16,VWS V14.01,2013-01-31 08:18:00,
2013-01-31 03:19:00,50.8,49.1,29.04,ENE,78,0.0,3.0,94,0.03,,,0.16,VWS V14.01,2013-01-31 08:19:00,
2013-01-31 03:20:00,50.6,48.7,29.04,ENE,78,0.0,3.0,93,0.03,,,0.16,VWS V14.01,2013-01-31 08:20:00,
2013-01-31 03:23:00,50.6,48.9,29.04,East,101,3.0,5.0,94,0.03,,,0.16,VWS V14.01,2013-01-31 08:23:00,
2013-01-31 03:24:00,50.6,48.9,29.04,East,101,2.0,5.0,94,0.03,,,0.16,VWS V14.01,2013-01-31 08:24:00,
2013-01-31 03:25:00,50.7,49.0,29.04,East,98,0.0,5.0,94,0.03,,,0.16,VWS V14.01,2013-01-31 08:25:00,
2013-01-31 03:28:00,50.4,48.5,29.04,ENE,78,0.0,4.0,93,0.03,,,0.16,VWS V14.01,2013-01-31 08:28:00,
2013-01-31 03:29:00,50.4,48.5,29.04,ENE,78,0.0,4.0,93,0.03,,,0.16,VWS V14.01,2013-01-31 08:29:00,
2013-01-31 03:30:00,50.3,48.6,29.04,ENE,73,0.0,6.0,94,0.04,,,0.17,VWS V14.01,2013-01-31 08:30:00,
2013-01-31 03:34:00,50.7,49.0,29.03,NNE,18,1.0,6.0,94,0.04,,,0.17,VWS V14.01,2013-01-31 08:34:00,
2013-01-31 03:35:00,50.8,49.1,29.02,East,99,1.0,6.0,94,0.05,,,0.18,VWS V14.01,2013-01-31 08:35:00,
2013-01-31 03:39:00,50.7,49.0,29.02,East,96,4.0,6.0,94,0.04,,,0.18,VWS V14.01,2013-01-31 08:39:00,
2013-01-31 03:40:00,50.9,49.2,29.02,NNE,31,1.0,6.0,94,0.04,,,0.18,VWS V14.01,2013-01-31 08:40:00,
2013-01-31 03:44:00,50.9,49.2,29.02,East,91,4.0,6.0,94,0.05,,,0.19,VWS V14.01,2013-01-31 08:44:00,
2013-01-31 03:45:00,50.9,49.2,29.01,NNW,336,5.0,6.0,94,0.05,,,0.19,VWS V14.01,2013-01-31 08:45:00,
2013-01-31 03:49:00,51.2,49.5,29.00,East,101,10.0,10.0,94,0.05,,,0.19,VWS V14.01,2013-01-31 08:49:00,
2013-01-31 03:50:00,51.4,49.7,29.00,East,90,2.0,10.0,94,0.05,,,0.19,VWS V14.01,2013-01-31 08:50:00,
2013-01-31 03:54:00,51.7,50.3,28.99,North,9,1.0,7.0,95,0.05,,,0.19,VWS V14.01,2013-01-31 08:54:00,
2013-01-31 03:55:00,51.7,50.0,28.99,NNW,331,4.0,7.0,94,0.05,,,0.19,VWS V14.01,2013-01-31 08:55:00,
2013-01-31 03:59:00,51.5,49.8,28.99,NW,320,5.0,9.0,94,0.05,,,0.19,VWS V14.01,2013-01-31 08:59:00,
2013-01-31 04:00:00,51.5,49.8,28.99,NNW,337,1.0,9.0,94,0.05,,,0.19,VWS V14.01,2013-01-31 09:00:00,
2013-01-31 04:04:00,51.4,49.7,28.98,East,86,4.0,9.0,94,0.06,,,0.20,VWS V14.01,2013-01-31 09:04:00,
2013-01-31 04:05:00,51.5,49.8,28.99,East,88,4.0,9.0,94,0.06,,,0.20,VWS V14.01,2013-01-31 09:05:00,
2013-01-31 04:09:00,51.3,49.6,28.97,East,91,2.0,6.0,94,0.05,,,0.20,VWS V14.01,2013-01-31 09:09:00,
2013-01-31 04:10:00,51.3,49.6,28.97,East,90,2.0,6.0,94,0.05,,,0.20,VWS V14.01,2013-01-31 09:10:00,
2013-01-31 04:14:00,51.2,49.5,28.96,East,90,2.0,7.0,94,0.06,,,0.21,VWS V14.01,2013-01-31 09:14:00,
2013-01-31 04:15:00,51.2,49.5,28.96,East,90,2.0,7.0,94,0.06,,,0.21,VWS V14.01,2013-01-31 09:15:00,
2013-01-31 04:19:00,50.9,49.2,28.96,ENE,63,2.0,10.0,94,0.06,,,0.21,VWS V14.01,2013-01-31 09:19:00,
2013-01-31 04:20:00,50.9,49.2,28.96,ENE,63,0.0,10.0,94,0.06,,,0.21,VWS V14.01,2013-01-31 09:20:00,
2013-01-31 04:25:00,50.4,48.7,28.96,East,91,2.0,5.0,94,0.05,,,0.21,VWS V14.01,2013-01-31 09:25:00,
2013-01-31 04:30:00,50.8,49.1,28.95,East,99,4.0,10.0,94,0.06,,,0.22,VWS V14.01,2013-01-31 09:30:00,
2013-01-31 04:35:00,50.5,48.8,28.94,East,92,2.0,7.0,94,0.06,,,0.23,VWS V14.01,2013-01-31 09:35:00,
2013-01-31 04:40:00,51.0,49.3,28.93,East,101,4.0,9.0,94,0.06,,,0.24,VWS V14.01,2013-01-31 09:40:00,
2013-01-31 04:45:00,51.7,50.3,28.93,SSE,148,5.0,9.0,95,0.07,,,0.25,VWS V14.01,2013-01-31 09:45:00,
2013-01-31 04:50:00,52.0,50.3,28.92,East,80,3.0,12.0,94,0.07,,,0.26,VWS V14.01,2013-01-31 09:50:00,
2013-01-31 04:55:00,51.9,50.2,28.90,East,100,5.0,11.0,94,0.08,,,0.27,VWS V14.01,2013-01-31 09:55:00,
2013-01-31 05:00:00,52.4,50.7,28.89,ESE,106,6.0,9.0,94,0.08,,,0.27,VWS V14.01,2013-01-31 10:00:00,
2013-01-31 05:01:00,52.5,50.8,28.89,ESE,109,5.0,5.0,94,0.07,,,0.27,VWS V14.01,2013-01-31 10:01:00,
2013-01-31 05:05:00,52.7,50.7,28.89,NE,40,2.0,12.0,93,0.08,,,0.28,VWS V14.01,2013-01-31 10:05:00,
2013-01-31 05:06:00,52.7,50.7,28.90,East,101,3.0,4.0,93,0.08,,,0.28,VWS V14.01,2013-01-31 10:06:00,
2013-01-31 05:10:00,52.1,49.8,28.92,ENE,67,2.0,10.0,92,0.08,,,0.28,VWS V14.01,2013-01-31 10:10:00,
2013-01-31 05:11:00,52.1,49.8,28.92,ENE,78,11.0,11.0,92,0.07,,,0.28,VWS V14.01,2013-01-31 10:11:00,
2013-01-31 05:15:00,52.3,50.3,28.93,ENE,71,3.0,12.0,93,0.08,,,0.29,VWS V14.01,2013-01-31 10:15:00,
2013-01-31 05:16:00,52.3,50.3,28.93,North,351,4.0,4.0,93,0.08,,,0.29,VWS V14.01,2013-01-31 10:16:00,
2013-01-31 05:20:00,52.8,50.8,28.92,NNE,13,10.0,12.0,93,0.10,,,0.31,VWS V14.01,2013-01-31 10:20:00,
2013-01-31 05:21:00,52.8,50.8,28.92,NW,318,6.0,10.0,93,0.10,,,0.31,VWS V14.01,2013-01-31 10:21:00,
2013-01-31 05:25:00,53.3,51.3,28.93,NNE,24,4.0,11.0,93,0.12,,,0.33,VWS V14.01,2013-01-31 10:25:00,
2013-01-31 05:26:00,53.4,51.4,28.93,NE,38,9.0,10.0,93,0.12,,,0.33,VWS V14.01,2013-01-31 10:26:00,
2013-01-31 05:30:00,53.2,50.9,28.92,SE,127,7.0,10.0,92,0.14,,,0.35,VWS V14.01,2013-01-31 10:30:00,
2013-01-31 05:31:00,53.2,50.9,28.92,ESE,105,8.0,9.0,92,0.13,,,0.35,VWS V14.01,2013-01-31 10:31:00,
2013-01-31 05:35:00,53.3,51.0,28.91,ESE,102,10.0,11.0,92,0.15,,,0.37,VWS V14.01,2013-01-31 10:35:00,
2013-01-31 05:36:00,53.3,51.0,28.91,ENE,65,9.0,12.0,92,0.14,,,0.37,VWS V14.01,2013-01-31 10:36:00,
2013-01-31 05:40:00,53.2,50.9,28.91,ESE,110,7.0,12.0,92,0.16,,,0.39,VWS V14.01,2013-01-31 10:40:00,
2013-01-31 05:41:00,53.2,50.9,28.91,ESE,102,11.0,11.0,92,0.15,,,0.39,VWS V14.01,2013-01-31 10:41:00,
2013-01-31 05:45:00,52.8,50.5,28.87,East,79,4.0,11.0,92,0.16,,,0.40,VWS V14.01,2013-01-31 10:45:00,
2013-01-31 05:46:00,52.8,50.5,28.88,East,79,3.0,5.0,92,0.15,,,0.40,VWS V14.01,2013-01-31 10:46:00,
2013-01-31 05:50:00,52.7,50.5,28.87,NNE,30,2.0,10.0,92,0.16,,,0.41,VWS V14.01,2013-01-31 10:50:00,
2013-01-31 05:51:00,52.7,50.5,28.87,North,9,4.0,4.0,92,0.16,,,0.42,VWS V14.01,2013-01-31 10:51:00,
2013-01-31 05:55:00,52.8,50.5,28.89,NNW,341,2.0,7.0,92,0.17,,,0.43,VWS V14.01,2013-01-31 10:55:00,
2013-01-31 05:56:00,52.7,50.5,28.90,SSW,199,4.0,4.0,92,0.16,,,0.43,VWS V14.01,2013-01-31 10:56:00,
2013-01-31 05:57:00,52.6,50.3,28.91,SSE,158,2.0,4.0,92,0.16,,,0.43,VWS V14.01,2013-01-31 10:57:00,
2013-01-31 06:00:00,52.7,50.7,28.92,NE,51,3.0,6.0,93,0.16,,,0.43,VWS V14.01,2013-01-31 11:00:00,
2013-01-31 06:01:00,52.8,50.8,28.92,ENE,71,6.0,15.0,93,0.16,,,0.43,VWS V14.01,2013-01-31 11:01:00,
2013-01-31 06:02:00,52.9,50.9,28.91,East,96,4.0,15.0,93,0.17,,,0.44,VWS V14.01,2013-01-31 11:02:00,
2013-01-31 06:05:00,53.3,51.3,28.90,East,82,10.0,15.0,93,0.18,,,0.45,VWS V14.01,2013-01-31 11:05:00,
2013-01-31 06:06:00,53.4,51.4,28.90,ESE,107,7.0,12.0,93,0.17,,,0.45,VWS V14.01,2013-01-31 11:06:00,
2013-01-31 06:07:00,53.5,51.5,28.90,East,84,4.0,12.0,93,0.18,,,0.46,VWS V14.01,2013-01-31 11:07:00,
2013-01-31 06:10:00,53.6,51.3,28.89,ENE,72,3.0,12.0,92,0.19,,,0.47,VWS V14.01,2013-01-31 11:10:00,
2013-01-31 06:11:00,53.6,51.3,28.89,NNW,333,4.0,6.0,92,0.19,,,0.47,VWS V14.01,2013-01-31 11:11:00,
2013-01-31 06:12:00,53.5,51.2,28.89,East,79,5.0,6.0,92,0.20,,,0.48,VWS V14.01,2013-01-31 11:12:00,
2013-01-31 06:15:00,53.5,51.2,28.87,ENE,71,6.0,7.0,92,0.21,,,0.49,VWS V14.01,2013-01-31 11:15:00,
2013-01-31 06:16:00,53.5,51.2,28.87,NE,54,2.0,6.0,92,0.21,,,0.50,VWS V14.01,2013-01-31 11:16:00,
2013-01-31 06:17:00,53.4,51.1,28.87,NNW,338,2.0,6.0,92,0.21,,,0.50,VWS V14.01,2013-01-31 11:17:00,
2013-01-31 06:20:00,53.0,50.7,28.87,North,360,3.0,11.0,92,0.22,,,0.51,VWS V14.01,2013-01-31 11:20:00,
2013-01-31 06:21:00,53.0,50.7,28.87,NE,45,5.0,12.0,92,0.20,,,0.51,VWS V14.01,2013-01-31 11:21:00,
2013-01-31 06:22:00,53.0,50.7,28.87,ENE,63,4.0,12.0,92,0.20,,,0.51,VWS V14.01,2013-01-31 11:22:00,
2013-01-31 06:23:00,53.0,50.7,28.87,North,360,3.0,12.0,92,0.20,,,0.51,VWS V14.01,2013-01-31 11:23:00,
2013-01-31 06:25:00,53.1,51.1,28.86,NNE,18,2.0,12.0,93,0.21,,,0.52,VWS V14.01,2013-01-31 11:25:00,
2013-01-31 06:26:00,53.1,51.1,28.86,East,98,3.0,4.0,93,0.19,,,0.52,VWS V14.01,2013-01-31 11:26:00,
2013-01-31 06:27:00,53.1,51.1,28.85,ESE,122,5.0,10.0,93,0.20,,,0.53,VWS V14.01,2013-01-31 11:27:00,
2013-01-31 06:28:00,53.1,51.1,28.86,ESE,107,3.0,10.0,93,0.20,,,0.53,VWS V14.01,2013-01-31 11:28:00,
2013-01-31 06:30:00,53.2,51.2,28.86,WNW,301,3.0,10.0,93,0.20,,,0.53,VWS V14.01,2013-01-31 11:30:00,
2013-01-31 06:31:00,53.1,51.1,28.86,NNE,26,3.0,13.0,93,0.18,,,0.53,VWS V14.01,2013-01-31 11:31:00,
2013-01-31 06:32:00,53.1,51.1,28.86,NNW,346,3.0,13.0,93,0.18,,,0.53,VWS V14.01,2013-01-31 11:32:00,
2013-01-31 06:33:00,53.1,51.1,28.85,East,88,4.0,13.0,93,0.18,,,0.53,VWS V14.01,2013-01-31 11:33:00,
2013-01-31 06:35:00,53.1,51.1,28.85,ENE,65,5.0,13.0,93,0.18,,,0.53,VWS V14.01,2013-01-31 11:35:00,
2013-01-31 06:36:00,53.1,51.1,28.84,North,360,2.0,7.0,93,0.16,,,0.53,VWS V14.01,2013-01-31 11:36:00,
2013-01-31 06:37:00,53.0,51.0,28.84,NW,321,5.0,10.0,93,0.16,,,0.53,VWS V14.01,2013-01-31 11:37:00,
2013-01-31 06:38:00,53.0,51.0,28.83,NNE,14,2.0,10.0,93,0.16,,,0.53,VWS V14.01,2013-01-31 11:38:00,
2013-01-31 06:40:00,53.0,51.0,28.84,North,360,6.0,10.0,93,0.16,,,0.53,VWS V14.01,2013-01-31 11:40:00,
2013-01-31 06:41:00,53.0,51.0,28.83,NW,318,5.0,11.0,93,0.14,,,0.53,VWS V14.01,2013-01-31 11:41:00,
2013-01-31 06:42:00,53.0,51.0,28.83,NNE,26,7.0,11.0,93,0.14,,,0.53,VWS V14.01,2013-01-31 11:42:00,
2013-01-31 06:43:00,53.1,51.1,28.83,NE,44,6.0,11.0,93,0.14,,,0.53,VWS V14.01,2013-01-31 11:43:00,
2013-01-31 06:45:00,53.0,51.0,28.84,North,5,2.0,11.0,93,0.14,,,0.53,VWS V14.01,2013-01-31 11:45:00,
2013-01-31 06:46:00,52.9,50.9,28.85,North,355,4.0,12.0,93,0.13,,,0.53,VWS V14.01,2013-01-31 11:46:00,
2013-01-31 06:47:00,52.8,50.8,28.85,NE,40,3.0,12.0,93,0.13,,,0.53,VWS V14.01,2013-01-31 11:47:00,
2013-01-31 06:48:00,52.7,50.7,28.85,NNE,18,3.0,12.0,93,0.13,,,0.53,VWS V14.01,2013-01-31 11:48:00,
2013-01-31 06:50:00,52.6,50.6,28.86,NNW,347,1.0,13.0,93,0.13,,,0.53,VWS V14.01,2013-01-31 11:50:00,
2013-01-31 06:52:00,52.5,50.5,28.86,NNW,334,2.0,5.0,93,0.12,,,0.53,VWS V14.01,2013-01-31 11:52:00,
2013-01-31 06:53:00,52.4,50.4,28.86,East,84,0.0,5.0,93,0.12,,,0.53,VWS V14.01,2013-01-31 11:53:00,
2013-01-31 06:55:00,52.2,50.0,28.87,NE,49,1.0,5.0,92,0.12,,,0.53,VWS V14.01,2013-01-31 11:55:00,
2013-01-31 06:57:00,52.1,49.8,28.88,NNE,23,0.0,3.0,92,0.10,,,0.53,VWS V14.01,2013-01-31 11:57:00,
2013-01-31 06:58:00,51.9,49.7,28.88,ESE,108,2.0,6.0,92,0.10,,,0.53,VWS V14.01,2013-01-31 11:58:00,
2013-01-31 07:00:00,51.8,49.8,28.88,SE,136,0.0,6.0,93,0.10,,,0.53,VWS V14.01,2013-01-31 12:00:00,
2013-01-31 07:02:00,51.8,49.8,28.88,ENE,78,4.0,9.0,93,0.10,,,0.53,VWS V14.01,2013-01-31 12:02:00,
2013-01-31 07:03:00,51.9,49.9,28.88,ENE,78,2.0,9.0,93,0.10,,,0.53,VWS V14.01,2013-01-31 12:03:00,
2013-01-31 07:04:00,52.0,50.0,28.88,North,360,3.0,9.0,93,0.10,,,0.53,VWS V14.01,2013-01-31 12:04:00,
2013-01-31 07:05:00,52.0,50.0,28.88,East,95,8.0,10.0,93,0.10,,,0.53,VWS V14.01,2013-01-31 12:05:00,
2013-01-31 07:07:00,52.0,50.0,28.90,East,87,5.0,13.0,93,0.08,,,0.53,VWS V14.01,2013-01-31 12:07:00,
2013-01-31 07:08:00,51.9,49.9,28.93,East,93,7.0,13.0,93,0.09,,,0.54,VWS V14.01,2013-01-31 12:08:00,
2013-01-31 07:09:00,51.2,49.0,28.93,ESE,110,6.0,16.0,92,0.10,,,0.55,VWS V14.01,2013-01-31 12:09:00,
2013-01-31 07:10:00,50.5,47.7,28.93,ENE,73,6.0,16.0,90,0.10,,,0.55,VWS V14.01,2013-01-31 12:10:00,
2013-01-31 07:12:00,49.6,46.5,28.93,ENE,75,3.0,8.0,89,0.09,,,0.56,VWS V14.01,2013-01-31 12:12:00,
2013-01-31 07:13:00,49.3,46.2,28.94,East,101,5.0,8.0,89,0.09,,,0.56,VWS V14.01,2013-01-31 12:13:00,
2013-01-31 07:14:00,49.0,45.9,28.94,East,84,6.0,8.0,89,0.09,,,0.56,VWS V14.01,2013-01-31 12:14:00,
2013-01-31 07:15:00,48.2,45.1,28.93,SSE,165,3.0,9.0,89,0.09,,,0.56,VWS V14.01,2013-01-31 12:15:00,
2013-01-31 07:17:00,47.7,44.6,28.94,SW,219,6.0,14.0,89,0.08,,,0.57,VWS V14.01,2013-01-31 12:17:00,
2013-01-31 07:18:00,47.3,45.1,28.94,ENE,65,5.0,14.0,92,0.08,,,0.57,VWS V14.01,2013-01-31 12:18:00,
2013-01-31 07:19:00,47.0,43.6,28.94,ESE,109,4.0,14.0,88,0.08,,,0.57,VWS V14.01,2013-01-31 12:19:00,
2013-01-31 07:20:00,46.5,43.1,28.95,NW,311,1.0,14.0,88,0.08,,,0.57,VWS V14.01,2013-01-31 12:20:00,
2013-01-31 07:22:00,46.2,42.8,28.95,East,99,3.0,9.0,88,0.06,,,0.57,VWS V14.01,2013-01-31 12:22:00,
2013-01-31 07:23:00,46.1,42.8,28.95,East,90,3.0,9.0,88,0.06,,,0.57,VWS V14.01,2013-01-31 12:23:00,
2013-01-31 07:24:00,45.9,42.5,28.95,ESE,106,1.0,9.0,88,0.06,,,0.57,VWS V14.01,2013-01-31 12:24:00,
2013-01-31 07:25:00,45.7,42.7,28.95,NNW,341,5.0,9.0,89,0.06,,,0.57,VWS V14.01,2013-01-31 12:25:00,
2013-01-31 07:27:00,45.5,42.5,28.96,NNE,27,2.0,5.0,89,0.05,,,0.57,VWS V14.01,2013-01-31 12:27:00,
2013-01-31 07:28:00,45.4,42.3,28.96,NNW,335,2.0,5.0,89,0.05,,,0.57,VWS V14.01,2013-01-31 12:28:00,
2013-01-31 07:29:00,45.4,42.3,28.97,NNW,335,0.0,5.0,89,0.05,,,0.57,VWS V14.01,2013-01-31 12:29:00,
2013-01-31 07:30:00,45.2,42.2,28.96,North,355,2.0,5.0,89,0.05,,,0.57,VWS V14.01,2013-01-31 12:30:00,
2013-01-31 07:32:00,45.0,42.0,28.96,North,355,2.0,4.0,89,0.04,,,0.57,VWS V14.01,2013-01-31 12:32:00,
2013-01-31 07:33:00,45.0,42.0,28.96,North,355,1.0,4.0,89,0.04,,,0.57,VWS V14.01,2013-01-31 12:33:00,
2013-01-31 07:34:00,45.0,42.0,28.96,North,355,0.0,4.0,89,0.04,,,0.57,VWS V14.01,2013-01-31 12:34:00,
2013-01-31 07:35:00,44.9,41.9,28.96,NW,306,3.0,4.0,89,0.04,,,0.57,VWS V14.01,2013-01-31 12:35:00,
2013-01-31 07:37:00,44.7,42.0,28.94,NW,304,2.0,3.0,90,0.04,,,0.57,VWS V14.01,2013-01-31 12:37:00,
2013-01-31 07:38:00,44.7,42.0,28.94,NW,304,2.0,3.0,90,0.04,,,0.57,VWS V14.01,2013-01-31 12:38:00,
2013-01-31 07:39:00,44.6,41.8,28.95,WSW,241,2.0,3.0,90,0.04,,,0.57,VWS V14.01,2013-01-31 12:39:00,
2013-01-31 07:40:00,44.5,41.8,28.96,WSW,241,0.0,3.0,90,0.04,,,0.57,VWS V14.01,2013-01-31 12:40:00,
2013-01-31 07:42:00,44.3,41.6,28.96,WNW,291,4.0,4.0,90,0.04,,,0.57,VWS V14.01,2013-01-31 12:42:00,
2013-01-31 07:43:00,44.2,41.5,28.96,WNW,291,2.0,4.0,90,0.04,,,0.57,VWS V14.01,2013-01-31 12:43:00,
2013-01-31 07:44:00,44.1,41.4,28.96,WNW,291,2.0,4.0,90,0.04,,,0.57,VWS V14.01,2013-01-31 12:44:00,
2013-01-31 07:45:00,44.0,41.3,28.95,WNW,291,2.0,4.0,90,0.04,,,0.57,VWS V14.01,2013-01-31 12:45:00,
2013-01-31 07:47:00,43.9,41.5,28.96,WNW,291,1.0,3.0,91,0.04,,,0.57,VWS V14.01,2013-01-31 12:47:00,
2013-01-31 07:48:00,43.8,41.3,28.96,WNW,298,2.0,3.0,91,0.04,,,0.57,VWS V14.01,2013-01-31 12:48:00,
2013-01-31 07:49:00,43.7,41.2,28.96,NW,314,2.0,4.0,91,0.04,,,0.57,VWS V14.01,2013-01-31 12:49:00,
2013-01-31 07:50:00,43.6,41.2,28.96,NW,315,4.0,6.0,91,0.04,,,0.57,VWS V14.01,2013-01-31 12:50:00,
2013-01-31 07:52:00,43.6,41.2,28.97,NW,315,1.0,4.0,91,0.04,,,0.57,VWS V14.01,2013-01-31 12:52:00,
2013-01-31 07:53:00,43.6,41.2,28.97,NW,311,5.0,5.0,91,0.04,,,0.57,VWS V14.01,2013-01-31 12:53:00,
2013-01-31 07:54:00,43.7,41.2,28.96,WNW,296,6.0,6.0,91,0.05,,,0.58,VWS V14.01,2013-01-31 12:54:00,
2013-01-31 07:55:00,43.7,41.2,28.96,NW,310,4.0,6.0,91,0.05,,,0.58,VWS V14.01,2013-01-31 12:55:00,
2013-01-31 07:57:00,43.6,41.2,28.97,NNE,24,1.0,7.0,91,0.05,,,0.58,VWS V14.01,2013-01-31 12:57:00,
2013-01-31 07:58:00,43.6,41.2,28.98,NW,321,6.0,7.0,91,0.05,,,0.58,VWS V14.01,2013-01-31 12:58:00,
2013-01-31 07:59:00,43.5,41.0,28.98,NW,325,3.0,7.0,91,0.05,,,0.58,VWS V14.01,2013-01-31 12:59:00,
2013-01-31 08:00:00,43.5,41.0,28.99,NNW,338,3.0,7.0,91,0.05,,,0.58,VWS V14.01,2013-01-31 13:00:00,
2013-01-31 08:03:00,43.3,40.8,28.99,North,11,6.0,7.0,91,0.05,,,0.58,VWS V14.01,2013-01-31 13:03:00,
2013-01-31 08:04:00,43.1,40.4,28.99,North,360,2.0,7.0,90,0.05,,,0.58,VWS V14.01,2013-01-31 13:04:00,
2013-01-31 08:05:00,43.0,40.3,28.99,North,360,1.0,7.0,90,0.05,,,0.58,VWS V14.01,2013-01-31 13:05:00,
2013-01-31 08:08:00,42.8,40.1,28.99,NE,39,2.0,11.0,90,0.05,,,0.58,VWS V14.01,2013-01-31 13:08:00,
2013-01-31 08:09:00,42.7,40.0,28.99,NW,319,4.0,12.0,90,0.05,,,0.58,VWS V14.01,2013-01-31 13:09:00,
2013-01-31 08:10:00,42.7,40.0,28.99,NNW,331,6.0,12.0,90,0.05,,,0.58,VWS V14.01,2013-01-31 13:10:00,
2013-01-31 08:13:00,42.7,39.7,29.01,East,80,5.0,11.0,89,0.03,,,0.58,VWS V14.01,2013-01-31 13:13:00,
2013-01-31 08:14:00,42.7,39.7,29.01,ENE,70,6.0,11.0,89,0.03,,,0.58,VWS V14.01,2013-01-31 13:14:00,
2013-01-31 08:15:00,42.7,39.7,29.01,ENE,61,1.0,11.0,89,0.03,,,0.58,VWS V14.01,2013-01-31 13:15:00,
2013-01-31 08:18:00,42.7,39.4,29.01,North,5,2.0,6.0,88,0.02,,,0.58,VWS V14.01,2013-01-31 13:18:00,
2013-01-31 08:20:00,42.6,39.3,29.02,ESE,109,2.0,6.0,88,0.02,,,0.58,VWS V14.01,2013-01-31 13:20:00,
2013-01-31 08:23:00,42.4,39.1,29.03,NE,51,2.0,6.0,88,0.01,,,0.58,VWS V14.01,2013-01-31 13:23:00,
2013-01-31 08:24:00,42.4,39.1,29.04,East,94,3.0,6.0,88,0.01,,,0.58,VWS V14.01,2013-01-31 13:24:00,
2013-01-31 08:25:00,42.3,39.0,29.04,ENE,69,6.0,9.0,88,0.01,,,0.58,VWS V14.01,2013-01-31 13:25:00,
2013-01-31 08:28:00,42.2,38.3,29.04,NE,51,3.0,7.0,86,0.01,,,0.58,VWS V14.01,2013-01-31 13:28:00,
2013-01-31 08:29:00,42.2,38.3,29.04,NE,53,5.0,7.0,86,0.01,,,0.58,VWS V14.01,2013-01-31 13:29:00,
2013-01-31 08:30:00,42.1,38.2,29.04,East,90,7.0,7.0,86,0.01,,,0.58,VWS V14.01,2013-01-31 13:30:00,
2013-01-31 08:33:00,42.1,37.6,29.04,NE,34,2.0,12.0,84,0.01,,,0.58,VWS V14.01,2013-01-31 13:33:00,
2013-01-31 08:34:00,42.1,37.6,29.04,ESE,107,12.0,12.0,84,0.01,,,0.58,VWS V14.01,2013-01-31 13:34:00,
2013-01-31 08:35:00,42.1,36.7,29.04,SE,129,2.0,13.0,81,0.01,,,0.58,VWS V14.01,2013-01-31 13:35:00,
2013-01-31 08:38:00,42.1,37.0,29.05,East,95,2.0,7.0,82,0.01,,,0.58,VWS V14.01,2013-01-31 13:38:00,
2013-01-31 08:39:00,42.1,37.0,29.05,East,89,2.0,7.0,82,0.01,,,0.58,VWS V14.01,2013-01-31 13:39:00,
2013-01-31 08:40:00,42.0,36.9,29.06,South,176,3.0,7.0,82,0.01,,,0.58,VWS V14.01,2013-01-31 13:40:00,
2013-01-31 08:43:00,41.9,36.8,29.06,East,98,4.0,9.0,82,0.01,,,0.58,VWS V14.01,2013-01-31 13:43:00,
2013-01-31 08:44:00,41.9,36.8,29.06,East,82,2.0,9.0,82,0.01,,,0.58,VWS V14.01,2013-01-31 13:44:00,
2013-01-31 08:45:00,41.8,36.7,29.06,ENE,61,4.0,9.0,82,0.01,,,0.58,VWS V14.01,2013-01-31 13:45:00,
2013-01-31 08:48:00,41.5,36.1,29.06,ENE,70,0.0,10.0,81,0.01,,,0.58,VWS V14.01,2013-01-31 13:48:00,
2013-01-31 08:49:00,41.5,36.1,29.06,ENE,70,1.0,10.0,81,0.01,,,0.58,VWS V14.01,2013-01-31 13:49:00,
2013-01-31 08:50:00,41.5,36.1,29.06,NE,45,4.0,10.0,81,0.01,,,0.58,VWS V14.01,2013-01-31 13:50:00,
2013-01-31 08:54:00,41.2,36.1,29.05,ESE,117,0.0,5.0,82,0.02,,,0.59,VWS V14.01,2013-01-31 13:54:00,
2013-01-31 08:55:00,41.1,36.0,29.06,ESE,105,4.0,5.0,82,0.02,,,0.59,VWS V14.01,2013-01-31 13:55:00,
2013-01-31 08:59:00,40.8,35.4,29.06,East,89,2.0,14.0,81,0.01,,,0.59,VWS V14.01,2013-01-31 13:59:00,
2013-01-31 09:00:00,40.8,35.7,29.06,ENE,70,2.0,14.0,82,0.01,,,0.59,VWS V14.01,2013-01-31 14:00:00,
2013-01-31 09:04:00,40.6,36.2,29.07,ENE,70,2.0,3.0,84,0.01,,,0.59,VWS V14.01,2013-01-31 14:04:00,
2013-01-31 09:05:00,40.6,36.2,29.07,ENE,78,0.0,5.0,84,0.01,,,0.59,VWS V14.01,2013-01-31 14:05:00,
2013-01-31 09:09:00,40.3,36.2,29.07,ESE,109,0.0,5.0,85,0.01,,,0.59,VWS V14.01,2013-01-31 14:09:00,
2013-01-31 09:10:00,40.2,36.3,29.07,ESE,107,0.0,5.0,86,0.01,,,0.59,VWS V14.01,2013-01-31 14:10:00,
2013-01-31 09:11:00,40.1,36.3,29.07,ESE,103,1.0,1.0,86,0.01,,,0.59,VWS V14.01,2013-01-31 14:11:00,
2013-01-31 09:14:00,39.9,35.8,29.07,North,355,0.0,11.0,85,0.01,,,0.59,VWS V14.01,2013-01-31 14:14:00,
2013-01-31 09:15:00,39.8,35.7,29.07,North,355,2.0,11.0,85,0.01,,,0.59,VWS V14.01,2013-01-31 14:15:00,
2013-01-31 09:16:00,39.8,36.0,29.07,North,355,0.0,2.0,86,0.01,,,0.59,VWS V14.01,2013-01-31 14:16:00,
2013-01-31 09:19:00,39.7,35.9,29.08,East,84,5.0,5.0,86,0.01,,,0.59,VWS V14.01,2013-01-31 14:19:00,
2013-01-31 09:20:00,39.6,35.8,29.08,ENE,73,2.0,7.0,86,0.01,,,0.59,VWS V14.01,2013-01-31 14:20:00,
2013-01-31 09:21:00,39.6,35.8,29.08,East,90,3.0,5.0,86,0.01,,,0.59,VWS V14.01,2013-01-31 14:21:00,
2013-01-31 09:24:00,39.5,35.7,29.08,East,90,0.0,5.0,86,0.01,,,0.59,VWS V14.01,2013-01-31 14:24:00,
2013-01-31 09:25:00,39.4,35.9,29.08,NE,52,4.0,5.0,87,0.01,,,0.59,VWS V14.01,2013-01-31 14:25:00,
2013-01-31 09:26:00,39.5,36.0,29.08,East,99,5.0,5.0,87,0.01,,,0.59,VWS V14.01,2013-01-31 14:26:00,
2013-01-31 09:29:00,39.3,35.5,29.09,ENE,64,3.0,10.0,86,0.02,,,0.60,VWS V14.01,2013-01-31 14:29:00,
2013-01-31 09:30:00,39.3,35.5,29.09,East,87,9.0,12.0,86,0.02,,,0.60,VWS V14.01,2013-01-31 14:30:00,
2013-01-31 09:31:00,39.3,35.5,29.09,East,87,9.0,12.0,86,0.02,,,0.60,VWS V14.01,2013-01-31 14:31:00,
2013-01-31 09:34:00,39.4,35.3,29.09,North,360,12.0,12.0,85,0.02,,,0.60,VWS V14.01,2013-01-31 14:34:00,
2013-01-31 09:35:00,39.4,35.3,29.09,NE,51,8.0,13.0,85,0.02,,,0.60,VWS V14.01,2013-01-31 14:35:00,
2013-01-31 09:36:00,39.4,35.0,29.10,East,84,6.0,10.0,84,0.02,,,0.60,VWS V14.01,2013-01-31 14:36:00,
2013-01-31 09:39:00,39.4,33.8,29.10,North,360,1.0,13.0,80,0.02,,,0.60,VWS V14.01,2013-01-31 14:39:00,
2013-01-31 09:40:00,39.5,33.5,29.10,East,86,5.0,13.0,79,0.02,,,0.60,VWS V14.01,2013-01-31 14:40:00,
2013-01-31 09:41:00,39.5,33.5,29.11,ESE,106,7.0,13.0,79,0.02,,,0.60,VWS V14.01,2013-01-31 14:41:00,
2013-01-31 09:44:00,39.6,33.0,29.10,ENE,69,6.0,13.0,77,0.02,,,0.60,VWS V14.01,2013-01-31 14:44:00,
2013-01-31 09:45:00,39.7,33.4,29.10,NNE,18,5.0,13.0,78,0.02,,,0.60,VWS V14.01,2013-01-31 14:45:00,
2013-01-31 09:46:00,39.7,33.4,29.10,NNE,24,1.0,5.0,78,0.02,,,0.60,VWS V14.01,2013-01-31 14:46:00,
2013-01-31 09:50:00,40.0,32.4,29.10,ENE,75,10.0,23.0,74,0.02,,,0.60,VWS V14.01,2013-01-31 14:50:00,
2013-01-31 09:51:00,40.1,32.5,29.10,North,360,4.0,4.0,74,0.01,,,0.60,VWS V14.01,2013-01-31 14:51:00,
2013-01-31 09:52:00,40.1,32.8,29.10,East,88,5.0,6.0,75,0.01,,,0.60,VWS V14.01,2013-01-31 14:52:00,
2013-01-31 09:55:00,40.2,32.2,29.10,East,96,7.0,21.0,73,0.01,,,0.60,VWS V14.01,2013-01-31 14:55:00,
2013-01-31 09:56:00,40.2,31.9,29.11,ENE,74,11.0,14.0,72,0.01,,,0.60,VWS V14.01,2013-01-31 14:56:00,
2013-01-31 09:57:00,40.2,31.9,29.11,ESE,111,9.0,14.0,72,0.01,,,0.60,VWS V14.01,2013-01-31 14:57:00,
2013-01-31 10:00:00,40.2,31.9,29.10,NE,55,7.0,18.0,72,0.01,,,0.60,VWS V14.01,2013-01-31 15:00:00,
2013-01-31 10:01:00,40.2,31.6,29.10,East,95,14.0,14.0,71,0.01,,,0.60,VWS V14.01,2013-01-31 15:01:00,
2013-01-31 10:02:00,40.2,31.6,29.10,East,91,9.0,14.0,71,0.01,,,0.60,VWS V14.01,2013-01-31 15:02:00,
2013-01-31 10:05:00,40.4,31.8,29.10,NNE,28,9.0,15.0,71,0.01,,,0.60,VWS V14.01,2013-01-31 15:05:00,
2013-01-31 10:06:00,40.4,32.1,29.10,ENE,72,6.0,16.0,72,0.01,,,0.60,VWS V14.01,2013-01-31 15:06:00,
2013-01-31 10:07:00,40.4,31.8,29.10,ESE,113,4.0,16.0,71,0.01,,,0.60,VWS V14.01,2013-01-31 15:07:00,
2013-01-31 10:10:00,40.5,31.5,29.10,ENE,78,15.0,21.0,70,0.01,,,0.60,VWS V14.01,2013-01-31 15:10:00,
2013-01-31 10:11:00,40.4,31.0,29.10,East,92,11.0,15.0,69,0.01,,,0.60,VWS V14.01,2013-01-31 15:11:00,
2013-01-31 10:12:00,40.4,30.7,29.10,ESE,123,9.0,16.0,68,0.01,,,0.60,VWS V14.01,2013-01-31 15:12:00,
2013-01-31 10:15:00,40.2,31.6,29.10,ESE,119,6.0,18.0,71,0.01,,,0.60,VWS V14.01,2013-01-31 15:15:00,
2013-01-31 10:16:00,40.1,31.1,29.11,SE,127,10.0,10.0,70,0.01,,,0.60,VWS V14.01,2013-01-31 15:16:00,
2013-01-31 10:17:00,40.1,31.1,29.12,ESE,119,7.0,18.0,70,0.01,,,0.60,VWS V14.01,2013-01-31 15:17:00,
2013-01-31 10:20:00,38.8,31.9,29.12,ESE,107,2.0,20.0,76,0.01,,,0.60,VWS V14.01,2013-01-31 15:20:00,
2013-01-31 10:21:00,38.6,32.0,29.12,SE,125,11.0,13.0,77,0.01,,,0.60,VWS V14.01,2013-01-31 15:21:00,
2013-01-31 10:22:00,38.3,32.0,29.12,ESE,118,9.0,13.0,78,0.01,,,0.60,VWS V14.01,2013-01-31 15:22:00,
2013-01-31 10:25:00,37.5,31.9,29.12,SSE,156,3.0,13.0,80,0.01,,,0.60,VWS V14.01,2013-01-31 15:25:00,
2013-01-31 10:26:00,37.4,31.8,29.12,NE,48,1.0,4.0,80,0.01,,,0.60,VWS V14.01,2013-01-31 15:26:00,
2013-01-31 10:27:00,37.3,32.0,29.12,NE,46,9.0,10.0,81,0.01,,,0.60,VWS V14.01,2013-01-31 15:27:00,
2013-01-31 10:30:00,36.9,31.6,29.13,ESE,106,6.0,12.0,81,0.01,,,0.60,VWS V14.01,2013-01-31 15:30:00,
2013-01-31 10:31:00,36.9,31.6,29.12,SE,128,2.0,6.0,81,0.00,,,0.60,VWS V14.01,2013-01-31 15:31:00,
2013-01-31 10:32:00,36.9,31.6,29.13,East,87,9.0,11.0,81,0.00,,,0.60,VWS V14.01,2013-01-31 15:32:00,
2013-01-31 10:35:00,36.9,31.6,29.13,East,81,6.0,12.0,81,0.00,,,0.60,VWS V14.01,2013-01-31 15:35:00,
2013-01-31 10:36:00,36.9,31.6,29.13,ESE,105,10.0,10.0,81,0.00,,,0.60,VWS V14.01,2013-01-31 15:36:00,
2013-01-31 10:37:00,36.9,31.3,29.14,SSE,156,15.0,20.0,80,0.00,,,0.60,VWS V14.01,2013-01-31 15:37:00,
2013-01-31 10:40:00,36.9,30.4,29.14,East,94,5.0,23.0,77,0.00,,,0.60,VWS V14.01,2013-01-31 15:40:00,
2013-01-31 10:41:00,36.9,29.7,29.14,East,92,9.0,9.0,75,0.00,,,0.60,VWS V14.01,2013-01-31 15:41:00,
2013-01-31 10:42:00,37.0,29.8,29.14,NE,34,11.0,13.0,75,0.00,,,0.60,VWS V14.01,2013-01-31 15:42:00,
2013-01-31 10:43:00,37.0,29.8,29.14,NE,55,7.0,13.0,75,0.00,,,0.60,VWS V14.01,2013-01-31 15:43:00,
2013-01-31 10:45:00,37.0,29.8,29.14,East,80,8.0,14.0,75,0.00,,,0.60,VWS V14.01,2013-01-31 15:45:00,
2013-01-31 10:46:00,37.0,29.8,29.14,East,82,7.0,8.0,75,0.00,,,0.60,VWS V14.01,2013-01-31 15:46:00,
2013-01-31 10:47:00,37.0,29.2,29.14,SE,137,13.0,17.0,73,0.00,,,0.60,VWS V14.01,2013-01-31 15:47:00,
2013-01-31 10:48:00,37.1,28.6,29.14,NE,53,12.0,17.0,71,0.00,,,0.60,VWS V14.01,2013-01-31 15:48:00,
2013-01-31 10:50:00,37.4,28.9,29.14,WNW,299,5.0,17.0,71,0.00,,,0.60,VWS V14.01,2013-01-31 15:50:00,
2013-01-31 10:51:00,37.4,28.9,29.13,WNW,298,4.0,5.0,71,0.00,,,0.60,VWS V14.01,2013-01-31 15:51:00,
2013-01-31 10:52:00,37.7,28.5,29.14,North,360,10.0,16.0,69,0.00,,,0.60,VWS V14.01,2013-01-31 15:52:00,
2013-01-31 10:53:00,37.8,28.2,29.13,ENE,65,17.0,17.0,68,0.00,,,0.60,VWS V14.01,2013-01-31 15:53:00,
2013-01-31 10:55:00,38.4,28.4,29.13,ESE,123,11.0,17.0,67,0.00,,,0.60,VWS V14.01,2013-01-31 15:55:00,
2013-01-31 10:56:00,38.5,28.5,29.13,East,95,14.0,14.0,67,0.00,,,0.60,VWS V14.01,2013-01-31 15:56:00,
2013-01-31 10:57:00,38.7,28.0,29.13,ENE,60,3.0,16.0,65,0.00,,,0.60,VWS V14.01,2013-01-31 15:57:00,
2013-01-31 10:58:00,38.8,28.4,29.13,East,93,4.0,16.0,66,0.00,,,0.60,VWS V14.01,2013-01-31 15:58:00,
2013-01-31 11:00:00,39.0,27.9,29.14,ENE,72,12.0,16.0,64,0.00,,,0.60,VWS V14.01,2013-01-31 16:00:00,
2013-01-31 11:01:00,39.0,27.9,29.14,ESE,106,12.0,12.0,64,0.00,,,0.60,VWS V14.01,2013-01-31 16:01:00,
2013-01-31 11:02:00,39.0,27.5,29.14,East,101,21.0,21.0,63,0.00,,,0.60,VWS V14.01,2013-01-31 16:02:00,
2013-01-31 11:03:00,39.0,26.7,29.14,East,87,12.0,21.0,61,0.00,,,0.60,VWS V14.01,2013-01-31 16:03:00,
2013-01-31 11:05:00,38.9,26.6,29.15,ENE,61,14.0,21.0,61,0.00,,,0.60,VWS V14.01,2013-01-31 16:05:00,
2013-01-31 11:06:00,38.9,26.6,29.14,NE,44,13.0,14.0,61,0.00,,,0.60,VWS V14.01,2013-01-31 16:06:00,
2013-01-31 11:07:00,38.9,27.4,29.15,SW,221,4.0,14.0,63,0.00,,,0.60,VWS V14.01,2013-01-31 16:07:00,
2013-01-31 11:08:00,38.9,27.4,29.15,East,100,14.0,20.0,63,0.00,,,0.60,VWS V14.01,2013-01-31 16:08:00,
2013-01-31 11:10:00,38.8,26.9,29.15,SSW,201,9.0,20.0,62,0.00,,,0.60,VWS V14.01,2013-01-31 16:10:00,
2013-01-31 11:11:00,38.8,26.9,29.15,South,186,5.0,10.0,62,0.00,,,0.60,VWS V14.01,2013-01-31 16:11:00,
2013-01-31 11:12:00,38.8,26.9,29.16,East,90,21.0,22.0,62,0.00,,,0.60,VWS V14.01,2013-01-31 16:12:00,
2013-01-31 11:13:00,38.7,26.8,29.16,ENE,57,21.0,22.0,62,0.00,,,0.60,VWS V14.01,2013-01-31 16:13:00,
2013-01-31 11:15:00,38.5,26.6,29.16,ENE,74,10.0,22.0,62,0.00,,,0.60,VWS V14.01,2013-01-31 16:15:00,
2013-01-31 11:16:00,38.4,27.3,29.16,East,90,9.0,11.0,64,0.00,,,0.60,VWS V14.01,2013-01-31 16:16:00,
2013-01-31 11:17:00,38.3,28.3,29.16,SSW,207,4.0,11.0,67,0.00,,,0.60,VWS V14.01,2013-01-31 16:17:00,
2013-01-31 11:18:00,38.2,28.6,29.16,WSW,240,0.0,11.0,68,0.00,,,0.60,VWS V14.01,2013-01-31 16:18:00,
2013-01-31 11:20:00,37.9,29.0,29.17,SW,230,5.0,13.0,70,0.00,,,0.60,VWS V14.01,2013-01-31 16:20:00,
2013-01-31 11:21:00,37.8,28.9,29.16,ESE,121,4.0,8.0,70,0.00,,,0.60,VWS V14.01,2013-01-31 16:21:00,
2013-01-31 11:23:00,37.4,29.2,29.16,NW,321,1.0,8.0,72,0.00,,,0.60,VWS V14.01,2013-01-31 16:23:00,
2013-01-31 11:25:00,37.0,29.2,29.17,East,90,6.0,8.0,73,0.00,,,0.60,VWS V14.01,2013-01-31 16:25:00,
2013-01-31 11:26:00,36.9,29.1,29.16,ESE,121,6.0,6.0,73,0.00,,,0.60,VWS V14.01,2013-01-31 16:26:00,
2013-01-31 11:28:00,36.6,29.1,29.16,East,101,5.0,9.0,74,0.00,,,0.60,VWS V14.01,2013-01-31 16:28:00,
2013-01-31 11:29:00,36.5,29.0,29.16,East,79,4.0,9.0,74,0.00,,,0.60,VWS V14.01,2013-01-31 16:29:00,
2013-01-31 11:30:00,36.3,28.8,29.16,SE,134,1.0,12.0,74,0.00,,,0.60,VWS V14.01,2013-01-31 16:30:00,
2013-01-31 11:31:00,36.2,28.4,29.16,SSE,159,2.0,6.0,73,0.00,,,0.60,VWS V14.01,2013-01-31 16:31:00,
2013-01-31 11:33:00,36.1,28.6,29.17,East,79,2.0,9.0,74,0.00,,,0.60,VWS V14.01,2013-01-31 16:33:00,
2013-01-31 11:34:00,36.1,28.6,29.17,East,79,0.0,9.0,74,0.00,,,0.60,VWS V14.01,2013-01-31 16:34:00,
2013-01-31 11:35:00,36.1,29.0,29.17,East,101,4.0,9.0,75,0.00,,,0.60,VWS V14.01,2013-01-31 16:35:00,
2013-01-31 11:36:00,36.1,29.0,29.17,ESE,109,4.0,4.0,75,0.00,,,0.60,VWS V14.01,2013-01-31 16:36:00,
2013-01-31 11:38:00,36.2,29.0,29.17,East,96,5.0,12.0,75,0.00,,,0.60,VWS V14.01,2013-01-31 16:38:00,
2013-01-31 11:39:00,36.2,29.0,29.17,East,84,8.0,12.0,75,0.00,,,0.60,VWS V14.01,2013-01-31 16:39:00,
2013-01-31 11:40:00,36.2,29.0,29.17,ESE,110,5.0,12.0,75,0.00,,,0.60,VWS V14.01,2013-01-31 16:40:00,
2013-01-31 11:41:00,36.2,29.0,29.17,SE,132,11.0,11.0,75,0.00,,,0.60,VWS V14.01,2013-01-31 16:41:00,
2013-01-31 11:44:00,36.1,28.6,29.16,East,92,3.0,12.0,74,0.00,,,0.60,VWS V14.01,2013-01-31 16:44:00,
2013-01-31 11:45:00,36.1,28.6,29.16,East,90,2.0,12.0,74,0.00,,,0.60,VWS V14.01,2013-01-31 16:45:00,
2013-01-31 11:47:00,36.1,28.6,29.16,East,90,1.0,2.0,74,0.00,,,0.60,VWS V14.01,2013-01-31 16:47:00,
2013-01-31 11:49:00,36.1,28.6,29.16,East,94,3.0,5.0,74,0.00,,,0.60,VWS V14.01,2013-01-31 16:49:00,
2013-01-31 11:50:00,36.0,28.5,29.16,ESE,105,4.0,6.0,74,0.00,,,0.60,VWS V14.01,2013-01-31 16:50:00,
2013-01-31 11:52:00,36.0,28.2,29.16,East,96,2.0,4.0,73,0.00,,,0.60,VWS V14.01,2013-01-31 16:52:00,
2013-01-31 11:54:00,36.1,28.3,29.16,ESE,117,5.0,8.0,73,0.00,,,0.60,VWS V14.01,2013-01-31 16:54:00,
2013-01-31 11:55:00,36.1,28.0,29.16,East,91,5.0,9.0,72,0.00,,,0.60,VWS V14.01,2013-01-31 16:55:00,
2013-01-31 11:57:00,36.1,28.0,29.16,East,90,1.0,5.0,72,0.00,,,0.60,VWS V14.01,2013-01-31 16:57:00,
2013-01-31 11:59:00,36.1,28.3,29.17,East,86,5.0,7.0,73,0.00,,,0.60,VWS V14.01,2013-01-31 16:59:00,
2013-01-31 12:00:00,36.1,28.3,29.17,East,86,0.0,7.0,73,0.00,,,0.60,VWS V14.01,2013-01-31 17:00:00,
2013-01-31 12:02:00,36.1,28.3,29.17,ESE,103,6.0,10.0,73,0.00,,,0.60,VWS V14.01,2013-01-31 17:02:00,
2013-01-31 12:04:00,36.2,27.0,29.18,ESE,105,10.0,18.0,69,0.00,,,0.60,VWS V14.01,2013-01-31 17:04:00,
2013-01-31 12:05:00,36.2,26.0,29.18,ESE,109,13.0,18.0,66,0.00,,,0.60,VWS V14.01,2013-01-31 17:05:00,
2013-01-31 12:07:00,36.3,26.4,29.18,ESE,104,10.0,14.0,67,0.00,,,0.60,VWS V14.01,2013-01-31 17:07:00,
2013-01-31 12:09:00,36.2,26.3,29.18,East,84,14.0,16.0,67,0.00,,,0.60,VWS V14.01,2013-01-31 17:09:00,
2013-01-31 12:10:00,36.1,26.6,29.19,ESE,103,5.0,17.0,68,0.00,,,0.60,VWS V14.01,2013-01-31 17:10:00,
2013-01-31 12:12:00,35.8,27.0,29.19,East,86,13.0,15.0,70,0.00,,,0.60,VWS V14.01,2013-01-31 17:12:00,
2013-01-31 12:14:00,35.5,26.4,29.19,East,92,7.0,18.0,69,0.00,,,0.60,VWS V14.01,2013-01-31 17:14:00,
2013-01-31 12:15:00,35.4,27.0,29.19,ENE,57,4.0,18.0,71,0.00,,,0.60,VWS V14.01,2013-01-31 17:15:00,
2013-01-31 12:17:00,35.3,26.5,29.19,East,99,9.0,15.0,70,0.00,,,0.60,VWS V14.01,2013-01-31 17:17:00,
2013-01-31 12:19:00,35.2,26.1,29.19,ESE,115,2.0,15.0,69,0.00,,,0.60,VWS V14.01,2013-01-31 17:19:00,
2013-01-31 12:20:00,35.2,26.4,29.19,East,88,6.0,15.0,70,0.00,,,0.60,VWS V14.01,2013-01-31 17:20:00,
2013-01-31 12:22:00,35.2,25.7,29.20,East,96,16.0,16.0,68,0.00,,,0.60,VWS V14.01,2013-01-31 17:22:00,
2013-01-31 12:24:00,35.2,25.7,29.20,ESE,111,6.0,16.0,68,0.00,,,0.60,VWS V14.01,2013-01-31 17:24:00,
2013-01-31 12:25:00,35.1,26.0,29.20,East,89,7.0,16.0,69,0.00,,,0.60,VWS V14.01,2013-01-31 17:25:00,
2013-01-31 12:27:00,34.8,25.3,29.20,ESE,115,20.0,21.0,68,0.00,,,0.60,VWS V14.01,2013-01-31 17:27:00,
2013-01-31 12:29:00,34.5,24.7,29.20,NNW,336,5.0,21.0,67,0.00,,,0.60,VWS V14.01,2013-01-31 17:29:00,
2013-01-31 12:30:00,34.5,24.7,29.21,NE,34,6.0,21.0,67,0.00,,,0.60,VWS V14.01,2013-01-31 17:30:00,
2013-01-31 12:32:00,34.4,23.9,29.21,ESE,105,19.0,19.0,65,0.00,,,0.60,VWS V14.01,2013-01-31 17:32:00,
2013-01-31 12:34:00,34.4,23.9,29.22,East,89,9.0,19.0,65,0.00,,,0.60,VWS V14.01,2013-01-31 17:34:00,
2013-01-31 12:35:00,34.4,23.9,29.22,NE,47,18.0,19.0,65,0.00,,,0.60,VWS V14.01,2013-01-31 17:35:00,
2013-01-31 12:37:00,34.3,23.8,29.22,ESE,110,11.0,23.0,65,0.00,,,0.60,VWS V14.01,2013-01-31 17:37:00,
2013-01-31 12:39:00,34.2,23.3,29.22,East,89,9.0,25.0,64,0.00,,,0.60,VWS V14.01,2013-01-31 17:39:00,
2013-01-31 12:40:00,34.2,23.3,29.23,ESE,110,7.0,25.0,64,0.00,,,0.60,VWS V14.01,2013-01-31 17:40:00,
2013-01-31 12:42:00,34.2,22.5,29.23,East,87,14.0,19.0,62,0.00,,,0.60,VWS V14.01,2013-01-31 17:42:00,
2013-01-31 12:44:00,34.2,22.2,29.23,East,88,7.0,19.0,61,0.00,,,0.60,VWS V14.01,2013-01-31 17:44:00,
2013-01-31 12:45:00,34.2,22.5,29.23,ESE,115,16.0,19.0,62,0.00,,,0.60,VWS V14.01,2013-01-31 17:45:00,
2013-01-31 12:48:00,34.3,22.3,29.23,East,88,5.0,17.0,61,0.00,,,0.60,VWS V14.01,2013-01-31 17:48:00,
2013-01-31 12:49:00,34.4,22.4,29.23,East,92,14.0,17.0,61,0.00,,,0.60,VWS V14.01,2013-01-31 17:49:00,
2013-01-31 12:50:00,34.4,22.4,29.23,ESE,121,18.0,18.0,61,0.00,,,0.60,VWS V14.01,2013-01-31 17:50:00,
2013-01-31 12:53:00,34.4,20.8,29.23,ESE,105,15.0,22.0,57,0.00,,,0.60,VWS V14.01,2013-01-31 17:53:00,
2013-01-31 12:55:00,34.4,20.3,29.23,East,98,17.0,22.0,56,0.00,,,0.60,VWS V14.01,2013-01-31 17:55:00,
2013-01-31 12:58:00,34.4,20.8,29.23,South,187,8.0,11.0,57,0.00,,,0.60,VWS V14.01,2013-01-31 17:58:00,
2013-01-31 13:00:00,34.4,20.8,29.23,ENE,76,9.0,19.0,57,0.00,,,0.60,VWS V14.01,2013-01-31 18:00:00,
2013-01-31 13:03:00,34.4,20.3,29.23,East,88,7.0,18.0,56,0.00,,,0.60,VWS V14.01,2013-01-31 18:03:00,
2013-01-31 13:05:00,34.4,19.9,29.24,NE,38,14.0,22.0,55,0.00,,,0.60,VWS V14.01,2013-01-31 18:05:00,
2013-01-31 13:08:00,34.4,20.3,29.24,East,90,14.0,14.0,56,0.00,,,0.60,VWS V14.01,2013-01-31 18:08:00,
2013-01-31 13:10:00,34.4,19.5,29.24,East,92,10.0,18.0,54,0.00,,,0.60,VWS V14.01,2013-01-31 18:10:00,
2013-01-31 13:13:00,34.4,19.9,29.25,NNE,24,13.0,16.0,55,0.00,,,0.60,VWS V14.01,2013-01-31 18:13:00,
2013-01-31 13:15:00,34.4,19.9,29.25,East,101,9.0,16.0,55,0.00,,,0.60,VWS V14.01,2013-01-31 18:15:00,
2013-01-31 13:16:00,34.4,19.9,29.25,East,92,19.0,23.0,55,0.00,,,0.60,VWS V14.01,2013-01-31 18:16:00,
2013-01-31 13:18:00,34.4,19.9,29.24,ESE,103,10.0,23.0,55,0.00,,,0.60,VWS V14.01,2013-01-31 18:18:00,
2013-01-31 13:20:00,34.4,19.9,29.25,ESE,119,7.0,23.0,55,0.00,,,0.60,VWS V14.01,2013-01-31 18:20:00,
2013-01-31 13:21:00,34.4,19.9,29.25,ENE,71,5.0,10.0,55,0.00,,,0.60,VWS V14.01,2013-01-31 18:21:00,
2013-01-31 13:24:00,34.4,19.9,29.25,East,88,11.0,13.0,55,0.00,,,0.60,VWS V14.01,2013-01-31 18:24:00,
2013-01-31 13:25:00,34.4,19.5,29.25,ENE,72,3.0,16.0,54,0.00,,,0.60,VWS V14.01,2013-01-31 18:25:00,
2013-01-31 13:26:00,34.4,20.3,29.26,East,84,7.0,7.0,56,0.00,,,0.60,VWS V14.01,2013-01-31 18:26:00,
2013-01-31 13:29:00,34.3,20.2,29.25,East,97,6.0,11.0,56,0.00,,,0.60,VWS V14.01,2013-01-31 18:29:00,
2013-01-31 13:30:00,34.3,19.8,29.26,NE,51,4.0,11.0,55,0.00,,,0.60,VWS V14.01,2013-01-31 18:30:00,
2013-01-31 13:31:00,34.3,20.2,29.26,SSE,150,3.0,5.0,56,0.00,,,0.60,VWS V14.01,2013-01-31 18:31:00,
2013-01-31 13:34:00,34.2,21.0,29.26,ESE,103,7.0,16.0,58,0.00,,,0.60,VWS V14.01,2013-01-31 18:34:00,
2013-01-31 13:35:00,34.2,20.6,29.26,East,99,14.0,16.0,57,0.00,,,0.60,VWS V14.01,2013-01-31 18:35:00,
2013-01-31 13:36:00,34.1,20.1,29.26,ESE,105,9.0,15.0,56,0.00,,,0.60,VWS V14.01,2013-01-31 18:36:00,
2013-01-31 13:39:00,34.0,19.5,29.26,NE,52,9.0,19.0,55,0.00,,,0.60,VWS V14.01,2013-01-31 18:39:00,
2013-01-31 13:40:00,34.0,19.5,29.26,East,99,7.0,19.0,55,0.00,,,0.60,VWS V14.01,2013-01-31 18:40:00,
2013-01-31 13:41:00,34.0,19.5,29.27,ENE,75,4.0,7.0,55,0.00,,,0.60,VWS V14.01,2013-01-31 18:41:00,
2013-01-31 13:44:00,33.8,19.4,29.27,ESE,106,7.0,19.0,55,0.00,,,0.60,VWS V14.01,2013-01-31 18:44:00,
2013-01-31 13:45:00,33.7,19.7,29.27,East,80,7.0,19.0,56,0.00,,,0.60,VWS V14.01,2013-01-31 18:45:00,
2013-01-31 13:46:00,33.7,19.7,29.27,East,84,8.0,9.0,56,0.00,,,0.60,VWS V14.01,2013-01-31 18:46:00,
2013-01-31 13:49:00,33.6,20.0,29.26,East,92,6.0,12.0,57,0.00,,,0.60,VWS V14.01,2013-01-31 18:49:00,
2013-01-31 13:50:00,33.6,19.6,29.26,East,91,13.0,13.0,56,0.00,,,0.60,VWS V14.01,2013-01-31 18:50:00,
2013-01-31 13:51:00,33.6,19.6,29.27,East,98,14.0,16.0,56,0.00,,,0.60,VWS V14.01,2013-01-31 18:51:00,
2013-01-31 13:54:00,33.1,22.3,29.27,ENE,71,3.0,19.0,64,0.00,,,0.60,VWS V14.01,2013-01-31 18:54:00,
2013-01-31 13:55:00,32.9,22.8,29.27,North,11,2.0,19.0,66,0.00,,,0.60,VWS V14.01,2013-01-31 18:55:00,
2013-01-31 13:56:00,32.9,22.8,29.27,ENE,59,4.0,4.0,66,0.00,,,0.60,VWS V14.01,2013-01-31 18:56:00,
2013-01-31 13:59:00,32.4,22.7,29.27,East,95,11.0,12.0,67,0.00,,,0.60,VWS V14.01,2013-01-31 18:59:00,
2013-01-31 14:00:00,32.2,22.5,29.27,ENE,76,5.0,15.0,67,0.00,,,0.60,VWS V14.01,2013-01-31 19:00:00,
2013-01-31 14:01:00,32.2,22.5,29.27,ENE,77,4.0,5.0,67,0.00,,,0.60,VWS V14.01,2013-01-31 19:01:00,
2013-01-31 14:02:00,32.2,22.8,29.27,East,79,2.0,6.0,68,0.00,,,0.60,VWS V14.01,2013-01-31 19:02:00,
2013-01-31 14:04:00,32.1,21.7,29.27,East,82,9.0,15.0,65,0.00,,,0.60,VWS V14.01,2013-01-31 19:04:00,
2013-01-31 14:05:00,32.2,21.4,29.27,ENE,77,5.0,15.0,64,0.00,,,0.60,VWS V14.01,2013-01-31 19:05:00,
2013-01-31 14:06:00,32.2,21.0,29.27,ENE,70,3.0,5.0,63,0.00,,,0.60,VWS V14.01,2013-01-31 19:06:00,
2013-01-31 14:07:00,32.3,21.5,29.27,East,89,5.0,5.0,64,0.00,,,0.60,VWS V14.01,2013-01-31 19:07:00,
2013-01-31 14:09:00,32.4,20.9,29.27,SE,126,2.0,15.0,62,0.00,,,0.60,VWS V14.01,2013-01-31 19:09:00,
2013-01-31 14:10:00,32.5,21.3,29.27,North,9,7.0,15.0,63,0.00,,,0.60,VWS V14.01,2013-01-31 19:10:00,
2013-01-31 14:11:00,32.5,21.3,29.27,NNE,15,5.0,8.0,63,0.00,,,0.60,VWS V14.01,2013-01-31 19:11:00,
2013-01-31 14:12:00,32.6,20.7,29.27,East,95,8.0,10.0,61,0.00,,,0.60,VWS V14.01,2013-01-31 19:12:00,
2013-01-31 14:14:00,32.7,20.8,29.27,East,82,7.0,14.0,61,0.00,,,0.60,VWS V14.01,2013-01-31 19:14:00,
2013-01-31 14:15:00,32.8,20.5,29.27,East,80,13.0,17.0,60,0.00,,,0.60,VWS V14.01,2013-01-31 19:15:00,
2013-01-31 14:16:00,32.8,20.5,29.28,NE,44,12.0,13.0,60,0.00,,,0.60,VWS V14.01,2013-01-31 19:16:00,
2013-01-31 14:17:00,32.8,19.3,29.27,NNW,337,4.0,13.0,57,0.00,,,0.60,VWS V14.01,2013-01-31 19:17:00,
2013-01-31 14:20:00,32.9,19.8,29.27,East,90,7.0,16.0,58,0.00,,,0.60,VWS V14.01,2013-01-31 19:20:00,
2013-01-31 14:21:00,33.0,19.4,29.28,East,86,4.0,7.0,57,0.00,,,0.60,VWS V14.01,2013-01-31 19:21:00,
2013-01-31 14:22:00,33.0,20.6,29.28,SE,132,5.0,9.0,60,0.00,,,0.60,VWS V14.01,2013-01-31 19:22:00,
2013-01-31 14:25:00,33.0,18.6,29.28,East,94,6.0,16.0,55,0.00,,,0.60,VWS V14.01,2013-01-31 19:25:00,
2013-01-31 14:26:00,33.1,19.1,29.28,East,99,3.0,3.0,56,0.00,,,0.60,VWS V14.01,2013-01-31 19:26:00,
2013-01-31 14:27:00,33.1,18.7,29.28,East,94,4.0,22.0,55,0.00,,,0.60,VWS V14.01,2013-01-31 19:27:00,
2013-01-31 14:30:00,33.2,17.9,29.28,East,81,7.0,22.0,53,0.00,,,0.60,VWS V14.01,2013-01-31 19:30:00,
2013-01-31 14:31:00,33.2,18.4,29.28,ESE,117,4.0,4.0,54,0.00,,,0.60,VWS V14.01,2013-01-31 19:31:00,
2013-01-31 14:32:00,33.2,18.4,29.28,East,96,11.0,12.0,54,0.00,,,0.60,VWS V14.01,2013-01-31 19:32:00,
2013-01-31 14:35:00,33.3,19.3,29.29,ESE,107,7.0,12.0,56,0.00,,,0.60,VWS V14.01,2013-01-31 19:35:00,
2013-01-31 14:36:00,33.3,19.7,29.29,ENE,78,6.0,6.0,57,0.00,,,0.60,VWS V14.01,2013-01-31 19:36:00,
2013-01-31 14:37:00,33.3,18.5,29.29,ENE,71,11.0,11.0,54,0.00,,,0.60,VWS V14.01,2013-01-31 19:37:00,
2013-01-31 14:40:00,33.3,18.0,29.29,East,79,7.0,18.0,53,0.00,,,0.60,VWS V14.01,2013-01-31 19:40:00,
2013-01-31 14:41:00,33.3,18.0,29.29,ESE,103,9.0,12.0,53,0.00,,,0.60,VWS V14.01,2013-01-31 19:41:00,
2013-01-31 14:42:00,33.3,17.6,29.29,East,98,15.0,16.0,52,0.00,,,0.60,VWS V14.01,2013-01-31 19:42:00,
2013-01-31 14:45:00,33.2,18.4,29.29,East,95,3.0,16.0,54,0.00,,,0.60,VWS V14.01,2013-01-31 19:45:00,
2013-01-31 14:46:00,33.2,17.9,29.29,East,96,3.0,5.0,53,0.00,,,0.60,VWS V14.01,2013-01-31 19:46:00,
2013-01-31 14:47:00,33.2,17.9,29.29,East,96,3.0,5.0,53,0.00,,,0.60,VWS V14.01,2013-01-31 19:47:00,
2013-01-31 14:50:00,33.2,18.4,29.29,ESE,118,13.0,17.0,54,0.00,,,0.60,VWS V14.01,2013-01-31 19:50:00,
2013-01-31 14:51:00,33.2,18.4,29.29,ESE,106,10.0,13.0,54,0.00,,,0.60,VWS V14.01,2013-01-31 19:51:00,
2013-01-31 14:52:00,33.2,18.4,29.30,ENE,72,7.0,13.0,54,0.00,,,0.60,VWS V14.01,2013-01-31 19:52:00,
2013-01-31 14:55:00,33.2,17.5,29.29,NE,36,11.0,17.0,52,0.00,,,0.60,VWS V14.01,2013-01-31 19:55:00,
2013-01-31 14:56:00,33.2,17.5,29.29,NE,55,10.0,11.0,52,0.00,,,0.60,VWS V14.01,2013-01-31 19:56:00,
2013-01-31 14:57:00,33.2,17.5,29.29,WSW,242,4.0,18.0,52,0.00,,,0.60,VWS V14.01,2013-01-31 19:57:00,
2013-01-31 14:58:00,33.2,17.9,29.30,East,101,4.0,18.0,53,0.00,,,0.60,VWS V14.01,2013-01-31 19:58:00,
2013-01-31 15:00:00,33.2,17.0,29.30,East,86,5.0,18.0,51,0.00,,,0.60,VWS V14.01,2013-01-31 20:00:00,
2013-01-31 15:01:00,33.2,17.0,29.30,SE,133,6.0,7.0,51,0.00,,,0.60,VWS V14.01,2013-01-31 20:01:00,
2013-01-31 15:02:00,33.2,17.5,29.30,NE,51,4.0,7.0,52,0.00,,,0.60,VWS V14.01,2013-01-31 20:02:00,
2013-01-31 15:03:00,33.2,17.5,29.30,ESE,104,9.0,15.0,52,0.00,,,0.60,VWS V14.01,2013-01-31 20:03:00,
2013-01-31 15:05:00,33.2,18.4,29.30,NE,53,3.0,15.0,54,0.00,,,0.60,VWS V14.01,2013-01-31 20:05:00,
2013-01-31 15:06:00,33.2,18.4,29.30,East,99,4.0,5.0,54,0.00,,,0.60,VWS V14.01,2013-01-31 20:06:00,
2013-01-31 15:07:00,33.2,18.4,29.30,East,81,7.0,7.0,54,0.00,,,0.60,VWS V14.01,2013-01-31 20:07:00,
2013-01-31 15:08:00,33.2,18.4,29.30,WNW,302,5.0,7.0,54,0.00,,,0.60,VWS V14.01,2013-01-31 20:08:00,
2013-01-31 15:10:00,33.3,18.5,29.31,East,101,9.0,13.0,54,0.00,,,0.60,VWS V14.01,2013-01-31 20:10:00,
2013-01-31 15:11:00,33.4,18.6,29.31,ESE,108,5.0,9.0,54,0.00,,,0.60,VWS V14.01,2013-01-31 20:11:00,
2013-01-31 15:12:00,33.4,19.0,29.32,East,91,6.0,9.0,55,0.00,,,0.60,VWS V14.01,2013-01-31 20:12:00,
2013-01-31 15:13:00,33.4,18.6,29.32,NW,316,6.0,9.0,54,0.00,,,0.60,VWS V14.01,2013-01-31 20:13:00,
2013-01-31 15:15:00,33.4,18.1,29.32,SW,227,5.0,20.0,53,0.00,,,0.60,VWS V14.01,2013-01-31 20:15:00,
2013-01-31 15:16:00,33.4,19.0,29.32,ESE,122,12.0,18.0,55,0.00,,,0.60,VWS V14.01,2013-01-31 20:16:00,
2013-01-31 15:17:00,33.3,17.6,29.32,ENE,76,3.0,18.0,52,0.00,,,0.60,VWS V14.01,2013-01-31 20:17:00,
2013-01-31 15:18:00,33.3,18.0,29.32,East,95,2.0,18.0,53,0.00,,,0.60,VWS V14.01,2013-01-31 20:18:00,
2013-01-31 15:20:00,33.2,17.0,29.33,ESE,114,3.0,18.0,51,0.00,,,0.60,VWS V14.01,2013-01-31 20:20:00,
2013-01-31 15:21:00,33.1,17.0,29.32,ENE,74,2.0,7.0,51,0.00,,,0.60,VWS V14.01,2013-01-31 20:21:00,
2013-01-31 15:22:00,33.1,17.4,29.32,East,82,14.0,14.0,52,0.00,,,0.60,VWS V14.01,2013-01-31 20:22:00,
2013-01-31 15:23:00,33.1,17.0,29.33,East,101,4.0,14.0,51,0.00,,,0.60,VWS V14.01,2013-01-31 20:23:00,
2013-01-31 15:25:00,32.9,16.8,29.33,SSE,156,9.0,20.0,51,0.00,,,0.60,VWS V14.01,2013-01-31 20:25:00,
2013-01-31 15:27:00,32.9,16.8,29.33,South,181,3.0,15.0,51,0.00,,,0.60,VWS V14.01,2013-01-31 20:27:00,
2013-01-31 15:28:00,32.8,16.7,29.33,ESE,114,5.0,15.0,51,0.00,,,0.60,VWS V14.01,2013-01-31 20:28:00,
2013-01-31 15:30:00,32.8,17.1,29.33,ENE,59,8.0,15.0,52,0.00,,,0.60,VWS V14.01,2013-01-31 20:30:00,
2013-01-31 15:33:00,32.7,17.0,29.33,ESE,103,9.0,10.0,52,0.00,,,0.60,VWS V14.01,2013-01-31 20:33:00,
2013-01-31 15:35:00,32.7,17.0,29.33,SW,222,2.0,12.0,52,0.00,,,0.60,VWS V14.01,2013-01-31 20:35:00,
2013-01-31 15:38:00,32.6,17.4,29.34,East,89,5.0,11.0,53,0.00,,,0.60,VWS V14.01,2013-01-31 20:38:00,
2013-01-31 15:39:00,32.6,17.4,29.34,East,97,5.0,11.0,53,0.00,,,0.60,VWS V14.01,2013-01-31 20:39:00,
2013-01-31 15:40:00,32.6,17.8,29.34,NNW,334,2.0,11.0,54,0.00,,,0.60,VWS V14.01,2013-01-31 20:40:00,
2013-01-31 15:43:00,32.7,17.5,29.35,East,85,4.0,17.0,53,0.00,,,0.60,VWS V14.01,2013-01-31 20:43:00,
2013-01-31 15:44:00,32.7,17.5,29.36,NE,49,3.0,17.0,53,0.00,,,0.60,VWS V14.01,2013-01-31 20:44:00,
2013-01-31 15:45:00,32.6,16.9,29.36,NNE,17,6.0,17.0,52,0.00,,,0.60,VWS V14.01,2013-01-31 20:45:00,
2013-01-31 15:48:00,32.5,15.9,29.35,SE,142,3.0,13.0,50,0.00,,,0.60,VWS V14.01,2013-01-31 20:48:00,
2013-01-31 15:49:00,32.5,15.9,29.35,ESE,108,7.0,13.0,50,0.00,,,0.60,VWS V14.01,2013-01-31 20:49:00,
2013-01-31 15:50:00,32.4,15.9,29.35,SE,127,4.0,13.0,50,0.00,,,0.60,VWS V14.01,2013-01-31 20:50:00,
2013-01-31 15:53:00,32.2,16.1,29.36,ENE,78,3.0,12.0,51,0.00,,,0.60,VWS V14.01,2013-01-31 20:53:00,
2013-01-31 15:54:00,32.2,16.1,29.36,East,90,14.0,14.0,51,0.00,,,0.60,VWS V14.01,2013-01-31 20:54:00,
2013-01-31 15:55:00,32.1,15.6,29.36,ESE,103,6.0,25.0,50,0.00,,,0.60,VWS V14.01,2013-01-31 20:55:00,
2013-01-31 16:00:00,32.0,15.5,29.36,ESE,112,6.0,14.0,50,0.00,,,0.60,VWS V14.01,2013-01-31 21:00:00,
2013-01-31 16:05:00,31.9,15.8,29.36,ENE,68,6.0,20.0,51,0.00,,,0.60,VWS V14.01,2013-01-31 21:05:00,
2013-01-31 16:10:00,31.8,15.3,29.35,East,90,10.0,22.0,50,0.00,,,0.60,VWS V14.01,2013-01-31 21:10:00,
2013-01-31 16:15:00,31.8,15.8,29.35,East,90,6.0,15.0,51,0.00,,,0.60,VWS V14.01,2013-01-31 21:15:00,
2013-01-31 16:20:00,31.7,15.7,29.35,East,90,8.0,13.0,51,0.00,,,0.60,VWS V14.01,2013-01-31 21:20:00,
2013-01-31 16:25:00,31.7,16.1,29.36,East,90,6.0,13.0,52,0.00,,,0.60,VWS V14.01,2013-01-31 21:25:00,
2013-01-31 16:30:00,31.7,16.5,29.36,East,90,6.0,19.0,53,0.00,,,0.60,VWS V14.01,2013-01-31 21:30:00,
2013-01-31 16:35:00,31.6,16.5,29.37,East,90,5.0,16.0,53,0.00,,,0.60,VWS V14.01,2013-01-31 21:35:00,
2013-01-31 16:40:00,31.4,15.8,29.38,East,90,8.0,25.0,52,0.00,,,0.60,VWS V14.01,2013-01-31 21:40:00,
2013-01-31 16:45:00,31.3,15.3,29.38,East,90,7.0,13.0,51,0.00,,,0.60,VWS V14.01,2013-01-31 21:45:00,
2013-01-31 16:50:00,31.1,16.4,29.38,East,90,5.0,15.0,54,0.00,,,0.60,VWS V14.01,2013-01-31 21:50:00,
2013-01-31 16:55:00,31.0,15.9,29.38,East,90,6.0,13.0,53,0.00,,,0.60,VWS V14.01,2013-01-31 21:55:00,
2013-01-31 17:00:00,30.8,16.1,29.38,East,90,6.0,12.0,54,0.00,,,0.60,VWS V14.01,2013-01-31 22:00:00,
2013-01-31 17:05:00,30.7,15.2,29.38,East,90,8.0,19.0,52,0.00,,,0.60,VWS V14.01,2013-01-31 22:05:00,
2013-01-31 17:10:00,30.7,15.6,29.38,East,90,6.0,16.0,53,0.00,,,0.60,VWS V14.01,2013-01-31 22:10:00,
2013-01-31 17:15:00,30.6,15.9,29.39,East,90,6.0,18.0,54,0.00,,,0.60,VWS V14.01,2013-01-31 22:15:00,
2013-01-31 17:20:00,30.4,16.2,29.39,East,90,7.0,17.0,55,0.00,,,0.60,VWS V14.01,2013-01-31 22:20:00,
2013-01-31 17:25:00,30.3,16.1,29.40,East,90,10.0,21.0,55,0.00,,,0.60,VWS V14.01,2013-01-31 22:25:00,
2013-01-31 17:30:00,30.1,15.9,29.41,East,90,10.0,19.0,55,0.00,,,0.60,VWS V14.01,2013-01-31 22:30:00,
2013-01-31 17:35:00,29.9,16.1,29.40,East,90,7.0,18.0,56,0.00,,,0.60,VWS V14.01,2013-01-31 22:35:00,
2013-01-31 17:40:00,29.8,16.0,29.41,East,90,6.0,14.0,56,0.00,,,0.60,VWS V14.01,2013-01-31 22:40:00,
2013-01-31 17:45:00,29.6,16.2,29.41,East,90,6.0,15.0,57,0.00,,,0.60,VWS V14.01,2013-01-31 22:45:00,
2013-01-31 17:50:00,29.6,16.2,29.41,East,90,5.0,11.0,57,0.00,,,0.60,VWS V14.01,2013-01-31 22:50:00,
2013-01-31 17:55:00,29.6,15.4,29.41,East,90,6.0,15.0,55,0.00,,,0.60,VWS V14.01,2013-01-31 22:55:00,
2013-01-31 18:00:00,29.6,16.6,29.42,East,90,5.0,12.0,58,0.00,,,0.60,VWS V14.01,2013-01-31 23:00:00,
2013-01-31 18:05:00,29.6,15.4,29.42,East,90,7.0,14.0,55,0.00,,,0.60,VWS V14.01,2013-01-31 23:05:00,
2013-01-31 18:10:00,29.6,15.8,29.43,East,90,7.0,16.0,56,0.00,,,0.60,VWS V14.01,2013-01-31 23:10:00,
2013-01-31 18:15:00,29.6,15.8,29.43,East,90,7.0,13.0,56,0.00,,,0.60,VWS V14.01,2013-01-31 23:15:00,
2013-01-31 18:20:00,29.5,15.8,29.43,East,90,9.0,19.0,56,0.00,,,0.60,VWS V14.01,2013-01-31 23:20:00,
2013-01-31 18:25:00,29.4,15.7,29.44,East,90,9.0,18.0,56,0.00,,,0.60,VWS V14.01,2013-01-31 23:25:00,
2013-01-31 18:30:00,29.2,18.5,29.44,SE,135,5.0,15.0,64,0.00,,,0.60,VWS V14.01,2013-01-31 23:30:00,
2013-01-31 18:35:00,28.7,19.8,29.44,East,90,3.0,8.0,69,0.00,,,0.60,VWS V14.01,2013-01-31 23:35:00,
2013-01-31 18:40:00,28.0,20.5,29.45,East,90,5.0,9.0,73,0.00,,,0.60,VWS V14.01,2013-01-31 23:40:00,
2013-01-31 18:45:00,27.4,21.5,29.46,East,90,4.0,9.0,78,0.00,,,0.60,VWS V14.01,2013-01-31 23:45:00,
2013-01-31 18:50:00,26.8,21.8,29.47,East,90,6.0,14.0,81,0.00,,,0.60,VWS V14.01,2013-01-31 23:50:00,
2013-01-31 18:55:00,26.2,21.5,29.47,East,90,7.0,15.0,82,0.00,,,0.60,VWS V14.01,2013-01-31 23:55:00,
2013-01-31 19:00:00,26.0,21.6,29.48,SSE,158,4.0,11.0,83,0.00,,,0.60,VWS V14.01,2013-02-01 00:00:00,
2013-01-31 19:05:00,26.0,18.5,29.50,SE,135,3.0,9.0,73,0.00,,,0.60,VWS V14.01,2013-02-01 00:05:00,
2013-01-31 19:10:00,26.0,21.6,29.48,SSE,158,4.0,11.0,83,0.00,,,0.60,VWS V14.01,2013-02-01 00:10:00,
2013-01-31 19:15:00,25.5,21.9,29.49,East,88,0.0,7.0,86,0.00,,,0.60,VWS V14.01,2013-02-01 00:15:00,
2013-01-31 19:16:00,25.5,21.9,29.48,East,88,0.0,0.0,86,0.00,,,0.60,VWS V14.01,2013-02-01 00:16:00,
2013-01-31 19:20:00,25.3,21.7,29.49,East,89,3.0,4.0,86,0.00,,,0.60,VWS V14.01,2013-02-01 00:20:00,
2013-01-31 19:21:00,25.3,21.7,29.49,East,88,3.0,3.0,86,0.00,,,0.60,VWS V14.01,2013-02-01 00:21:00,
2013-01-31 19:25:00,25.3,21.7,29.49,East,82,3.0,10.0,86,0.00,,,0.60,VWS V14.01,2013-02-01 00:25:00,
2013-01-31 19:26:00,25.3,21.7,29.49,East,82,3.0,3.0,86,0.00,,,0.60,VWS V14.01,2013-02-01 00:26:00,
2013-01-31 19:30:00,25.2,21.3,29.49,East,97,4.0,7.0,85,0.00,,,0.60,VWS V14.01,2013-02-01 00:30:00,
2013-01-31 19:31:00,25.2,21.3,29.49,East,96,2.0,4.0,85,0.00,,,0.60,VWS V14.01,2013-02-01 00:31:00,
2013-01-31 19:35:00,25.3,21.1,29.49,East,89,1.0,5.0,84,0.00,,,0.60,VWS V14.01,2013-02-01 00:35:00,
2013-01-31 19:36:00,25.2,21.0,29.49,East,89,0.0,1.0,84,0.00,,,0.60,VWS V14.01,2013-02-01 00:36:00,
2013-01-31 19:40:00,25.3,20.9,29.49,East,88,1.0,4.0,83,0.00,,,0.60,VWS V14.01,2013-02-01 00:40:00,
2013-01-31 19:41:00,25.3,20.9,29.49,East,88,2.0,2.0,83,0.00,,,0.60,VWS V14.01,2013-02-01 00:41:00,
2013-01-31 19:42:00,25.4,21.2,29.49,ENE,78,3.0,4.0,84,0.00,,,0.60,VWS V14.01,2013-02-01 00:42:00,
2013-01-31 19:45:00,25.4,20.7,29.49,ENE,68,4.0,10.0,82,0.00,,,0.60,VWS V14.01,2013-02-01 00:45:00,
2013-01-31 19:50:00,25.5,20.2,29.49,ENE,68,2.0,9.0,80,0.00,,,0.60,VWS V14.01,2013-02-01 00:50:00,
2013-01-31 19:55:00,25.7,19.5,29.49,East,90,5.0,13.0,77,0.00,,,0.60,VWS V14.01,2013-02-01 00:55:00,
2013-01-31 20:00:00,25.8,19.0,29.50,ESE,112,4.0,15.0,75,0.00,,,0.60,VWS V14.01,2013-02-01 01:00:00,
2013-01-31 20:05:00,26.0,18.5,29.50,SE,135,3.0,9.0,73,0.00,,,0.60,VWS V14.01,2013-02-01 01:05:00,
2013-01-31 20:10:00,26.1,18.6,29.50,ESE,112,3.0,10.0,73,0.00,,,0.60,VWS V14.01,2013-02-01 01:10:00,
2013-01-31 20:15:00,26.1,18.3,29.50,ESE,112,2.0,4.0,72,0.00,,,0.60,VWS V14.01,2013-02-01 01:15:00,
2013-01-31 20:20:00,26.1,18.3,29.51,ESE,112,1.0,3.0,72,0.00,,,0.60,VWS V14.01,2013-02-01 01:20:00,
2013-01-31 20:25:00,26.1,18.3,29.50,ESE,112,1.0,3.0,72,0.00,,,0.60,VWS V14.01,2013-02-01 01:25:00,
2013-01-31 20:30:00,26.1,17.7,29.51,ESE,112,2.0,7.0,70,0.00,,,0.60,VWS V14.01,2013-02-01 01:30:00,
2013-01-31 20:35:00,26.0,16.9,29.52,East,90,3.0,10.0,68,0.00,,,0.60,VWS V14.01,2013-02-01 01:35:00,
2013-01-31 20:40:00,26.0,16.9,29.52,SE,135,3.0,10.0,68,0.00,,,0.60,VWS V14.01,2013-02-01 01:40:00,
2013-01-31 20:45:00,26.0,15.5,29.52,East,90,4.0,12.0,64,0.00,,,0.60,VWS V14.01,2013-02-01 01:45:00,
2013-01-31 20:50:00,25.9,15.8,29.52,East,90,6.0,15.0,65,0.00,,,0.60,VWS V14.01,2013-02-01 01:50:00,
2013-01-31 20:55:00,25.9,15.1,29.52,East,90,4.0,13.0,63,0.00,,,0.60,VWS V14.01,2013-02-01 01:55:00,
2013-01-31 21:00:00,24.8,12.9,29.55,ENE,68,3.0,9.0,60,0.00,,,0.60,VWS V14.01,2013-02-01 02:00:00,
2013-01-31 21:04:00,25.9,15.1,29.52,East,90,4.0,13.0,63,0.00,,,0.60,VWS V14.01,2013-02-01 02:04:00,
2013-01-31 21:05:00,25.7,15.6,29.53,East,91,6.0,11.0,65,0.00,,,0.60,VWS V14.01,2013-02-01 02:05:00,
2013-01-31 21:09:00,25.6,14.8,29.53,East,87,6.0,13.0,63,0.00,,,0.60,VWS V14.01,2013-02-01 02:09:00,
2013-01-31 21:10:00,25.6,14.4,29.53,NE,46,11.0,13.0,62,0.00,,,0.60,VWS V14.01,2013-02-01 02:10:00,
2013-01-31 21:15:00,25.5,13.6,29.54,East,90,6.0,16.0,60,0.00,,,0.60,VWS V14.01,2013-02-01 02:15:00,
2013-01-31 21:20:00,25.4,13.8,29.54,East,90,5.0,12.0,61,0.00,,,0.60,VWS V14.01,2013-02-01 02:20:00,
2013-01-31 21:25:00,25.3,13.0,29.54,East,90,7.0,20.0,59,0.00,,,0.60,VWS V14.01,2013-02-01 02:25:00,
2013-01-31 21:30:00,25.2,13.3,29.55,East,90,5.0,13.0,60,0.00,,,0.60,VWS V14.01,2013-02-01 02:30:00,
2013-01-31 21:35:00,25.1,13.2,29.55,East,90,7.0,16.0,60,0.00,,,0.60,VWS V14.01,2013-02-01 02:35:00,
2013-01-31 21:40:00,25.0,12.7,29.55,East,90,6.0,18.0,59,0.00,,,0.60,VWS V14.01,2013-02-01 02:40:00,
2013-01-31 21:45:00,25.0,12.7,29.55,ESE,112,8.0,16.0,59,0.00,,,0.60,VWS V14.01,2013-02-01 02:45:00,
2013-01-31 21:50:00,24.9,12.6,29.55,East,90,5.0,14.0,59,0.00,,,0.60,VWS V14.01,2013-02-01 02:50:00,
2013-01-31 21:55:00,24.8,12.1,29.55,East,90,7.0,14.0,58,0.00,,,0.60,VWS V14.01,2013-02-01 02:55:00,
2013-01-31 22:00:00,24.8,12.9,29.55,ENE,68,3.0,9.0,60,0.00,,,0.60,VWS V14.01,2013-02-01 03:00:00,
2013-01-31 22:05:00,24.7,12.0,29.56,East,90,7.0,15.0,58,0.00,,,0.60,VWS V14.01,2013-02-01 03:05:00,
2013-01-31 22:10:00,24.6,11.9,29.56,ESE,112,9.0,19.0,58,0.00,,,0.60,VWS V14.01,2013-02-01 03:10:00,
2013-01-31 22:15:00,24.5,12.2,29.56,ESE,112,4.0,13.0,59,0.00,,,0.60,VWS V14.01,2013-02-01 03:15:00,
2013-01-31 22:20:00,24.4,11.8,29.56,ESE,112,6.0,12.0,58,0.00,,,0.60,VWS V14.01,2013-02-01 03:20:00,
2013-01-31 22:25:00,24.3,11.7,29.57,ENE,68,5.0,14.0,58,0.00,,,0.60,VWS V14.01,2013-02-01 03:25:00,
2013-01-31 22:30:00,24.2,11.2,29.57,East,90,7.0,17.0,57,0.00,,,0.60,VWS V14.01,2013-02-01 03:30:00,
2013-01-31 22:35:00,24.1,11.1,29.57,East,90,6.0,17.0,57,0.00,,,0.60,VWS V14.01,2013-02-01 03:35:00,
2013-01-31 22:40:00,24.0,11.4,29.57,East,90,7.0,15.0,58,0.00,,,0.60,VWS V14.01,2013-02-01 03:40:00,
2013-01-31 22:45:00,23.9,10.9,29.56,ENE,68,7.0,14.0,57,0.00,,,0.60,VWS V14.01,2013-02-01 03:45:00,
2013-01-31 22:50:00,23.9,11.3,29.57,ESE,112,6.0,14.0,58,0.00,,,0.60,VWS V14.01,2013-02-01 03:50:00,
2013-01-31 22:55:00,23.9,10.9,29.57,East,90,9.0,19.0,57,0.00,,,0.60,VWS V14.01,2013-02-01 03:55:00,
2013-01-31 23:00:00,23.8,10.8,29.57,East,90,7.0,14.0,57,0.00,,,0.60,VWS V14.01,2013-02-01 04:00:00,
2013-01-31 23:05:00,23.7,10.7,29.58,ESE,112,4.0,11.0,57,0.00,,,0.60,VWS V14.01,2013-02-01 04:05:00,
2013-01-31 23:10:00,23.6,11.0,29.58,ESE,112,5.0,15.0,58,0.00,,,0.60,VWS V14.01,2013-02-01 04:10:00,
2013-01-31 23:15:00,23.5,10.9,29.58,East,90,6.0,17.0,58,0.00,,,0.60,VWS V14.01,2013-02-01 04:15:00,
2013-01-31 23:20:00,23.4,10.8,29.58,ESE,112,4.0,16.0,58,0.00,,,0.60,VWS V14.01,2013-02-01 04:20:00,
2013-01-31 23:25:00,23.4,10.8,29.58,East,90,6.0,18.0,58,0.00,,,0.60,VWS V14.01,2013-02-01 04:25:00,
2013-01-31 23:30:00,23.3,10.7,29.58,East,90,6.0,15.0,58,0.00,,,0.60,VWS V14.01,2013-02-01 04:30:00,
2013-01-31 23:35:00,23.2,10.6,29.58,East,90,8.0,17.0,58,0.00,,,0.60,VWS V14.01,2013-02-01 04:35:00,
2013-01-31 23:40:00,23.2,11.0,29.59,ESE,112,4.0,7.0,59,0.00,,,0.60,VWS V14.01,2013-02-01 04:40:00,
2013-01-31 23:45:00,23.1,10.9,29.58,East,90,4.0,16.0,59,0.00,,,0.60,VWS V14.01,2013-02-01 04:45:00,
2013-01-31 23:50:00,23.1,10.1,29.59,ESE,112,8.0,16.0,57,0.00,,,0.60,VWS V14.01,2013-02-01 04:50:00,
2013-01-31 23:55:00,23.2,10.2,29.59,East,90,6.0,15.0,57,0.00,,,0.60,VWS V14.01,2013-02-01 04:55:00,